| time (UTC) | temp F | wind direction | speed knots | gust knots | rain 1hr in | rain 24hr in | rain mn in | humidity % | barometer mb |
| 20260506162632 | 63 | 132 | 0.0 | 2.6 | 0.03 | 0.03 | 0.03 | 91 | 1008.1 |
| 20260506162530 | 63 | 132 | 0.0 | 2.6 | 0.03 | 0.03 | 0.03 | 91 | 1008.3 |
| 20260506162430 | 63 | 132 | 0.0 | 2.6 | 0.03 | 0.03 | 0.03 | 90 | 1008.3 |
| 20260506162344 | 63 | 132 | 0.0 | 2.6 | 0.03 | 0.03 | 0.03 | 90 | 1008.3 |
| 20260506162128 | 63 | 187 | 0.0 | 2.6 | 0.03 | 0.03 | 0.03 | 90 | 1008.4 |
| 20260506162028 | 63 | 195 | 0.0 | 2.6 | 0.03 | 0.03 | 0.03 | 90 | 1008.4 |
| 20260506161928 | 63 | 130 | 0.0 | 2.6 | 0.03 | 0.03 | 0.03 | 90 | 1008.4 |
| 20260506161828 | 63 | 150 | 0.0 | 2.6 | 0.02 | 0.02 | 0.03 | 90 | 1008.4 |
| 20260506161726 | 63 | 150 | 0.0 | 2.6 | 0.02 | 0.02 | 0.02 | 90 | 1008.4 |
| 20260506161710 | 63 | 158 | 0.0 | 2.6 | 0.02 | 0.02 | 0.02 | 90 | 1008.5 |
| 20260506161223 | 64 | 135 | 0.0 | 1.7 | 0.02 | 0.02 | 0.02 | 89 | 1008.5 |
| 20260506161122 | 64 | 135 | 0.0 | 1.7 | 0.02 | 0.02 | 0.02 | 89 | 1008.6 |
| 20260506161035 | 64 | 135 | 0.0 | 1.7 | 0.02 | 0.02 | 0.02 | 89 | 1008.5 |
| 20260506160817 | 64 | 139 | 0.0 | 1.7 | 0.02 | 0.02 | 0.02 | 88 | 1008.6 |
| 20260506160720 | 64 | 127 | 0.0 | 1.7 | 0.02 | 0.02 | 0.02 | 89 | 1008.6 |
| 20260506160619 | 64 | 127 | 0.0 | 1.7 | 0.01 | 0.01 | 0.02 | 88 | 1008.6 |
| 20260506160518 | 64 | 127 | 0.0 | 1.7 | 0.01 | 0.01 | 0.01 | 88 | 1008.6 |
| 20260506160415 | 64 | 127 | 0.0 | 1.7 | 0.01 | 0.01 | 0.01 | 88 | 1008.6 |
| 20260506160317 | 64 | 127 | 0.0 | 1.7 | 0.01 | 0.01 | 0.01 | 87 | 1008.6 |
| 20260506160230 | 64 | 127 | 0.0 | 1.7 | 0.01 | 0.01 | 0.01 | 87 | 1008.6 |
| 20260506160014 | 64 | 127 | 0.0 | 1.7 | 0.01 | 0.01 | 0.01 | 87 | 1008.7 |
| 20260506155913 | 64 | 247 | 0.0 | 1.7 | 0.01 | 0.01 | 0.01 | 87 | 1008.7 |
| 20260506155812 | 64 | 247 | 0.0 | 1.7 | 0.01 | 0.01 | 0.01 | 87 | 1008.7 |
| 20260506155724 | 64 | 247 | 0.0 | 1.7 | 0.01 | 0.01 | 0.01 | 87 | 1008.7 |
| 20260506155511 | 64 | 247 | 0.0 | 2.6 | 0.00 | 0.00 | 0.00 | 86 | 1008.7 |
| 20260506155408 | 64 | 247 | 0.0 | 2.6 | 0.00 | 0.00 | 0.00 | 86 | 1008.7 |
| 20260506155306 | 64 | 247 | 0.0 | 2.6 | 0.00 | 0.00 | 0.00 | 86 | 1008.7 |
| 20260506155206 | 64 | 247 | 0.0 | 2.6 | 0.00 | 0.00 | 0.00 | 86 | 1008.7 |
| 20260506155105 | 65 | 170 | 0.0 | 2.6 | 0.00 | 0.00 | 0.00 | 86 | 1008.8 |
| 20260506155005 | 65 | 115 | 0.0 | 6.1 | 0.00 | 0.00 | 0.00 | 86 | 1008.8 |
| 20260506154919 | 65 | 115 | 0.0 | 6.1 | 0.00 | 0.00 | 0.00 | 85 | 1008.9 |
| 20260506154703 | 65 | 156 | 0.0 | 6.1 | 0.00 | 0.00 | 0.00 | 85 | 1008.9 |
| 20260506154616 | 65 | 157 | 0.0 | 6.1 | 0.00 | 0.00 | 0.00 | 85 | 1008.9 |
| 20260506154359 | 65 | 146 | 0.0 | 6.1 | 0.00 | 0.00 | 0.00 | 85 | 1008.9 |
| 20260506154327 | 65 | 146 | 0.0 | 6.1 | 0.00 | 0.00 | 0.00 | 85 | 1008.8 |
| 20260506153955 | 65 | 128 | 0.0 | 0.9 | 0.00 | 0.00 | 0.00 | 85 | 1008.8 |
| 20260506153856 | 65 | 128 | 0.0 | 0.9 | 0.00 | 0.00 | 0.00 | 85 | 1008.8 |
| 20260506153756 | 65 | 128 | 0.0 | 0.9 | 0.00 | 0.00 | 0.00 | 84 | 1008.8 |
| 20260506153655 | 65 | 128 | 0.0 | 1.7 | 0.00 | 0.00 | 0.00 | 84 | 1008.7 |
| 20260506153555 | 65 | 128 | 0.0 | 1.7 | 0.00 | 0.00 | 0.00 | 84 | 1008.7 |
| 20260506153453 | 65 | 128 | 0.0 | 1.7 | 0.00 | 0.00 | 0.00 | 84 | 1008.6 |
| 20260506153352 | 65 | 128 | 0.0 | 1.7 | 0.00 | 0.00 | 0.00 | 84 | 1008.6 |
| 20260506153307 | 65 | 128 | 0.0 | 1.7 | 0.00 | 0.00 | 0.00 | 83 | 1008.6 |
| 20260506153051 | 65 | 128 | 0.0 | 1.7 | 0.00 | 0.00 | 0.00 | 83 | 1008.5 |
| 20260506152951 | 65 | 128 | 0.0 | 1.7 | 0.00 | 0.00 | 0.00 | 83 | 1008.6 |
| 20260506152904 | 65 | 128 | 0.0 | 1.7 | 0.00 | 0.00 | 0.00 | 83 | 1008.5 |
| 20260506152650 | 66 | 194 | 0.0 | 1.7 | 0.00 | 0.00 | 0.00 | 83 | 1008.4 |
| 20260506152551 | 65 | 194 | 0.0 | 1.7 | 0.00 | 0.00 | 0.00 | 83 | 1008.5 |
| 20260506152450 | 66 | 194 | 0.0 | 1.7 | 0.00 | 0.00 | 0.00 | 82 | 1008.4 |
| 20260506152352 | 66 | 194 | 0.0 | 1.7 | 0.00 | 0.00 | 0.00 | 82 | 1008.5 |
| 20260506152247 | 66 | 178 | 0.0 | 1.7 | 0.00 | 0.00 | 0.00 | 83 | 1008.5 |
| 20260506152148 | 66 | 178 | 0.0 | 1.7 | 0.00 | 0.00 | 0.00 | 83 | 1008.5 |
| 20260506152047 | 66 | 182 | 0.0 | 1.7 | 0.00 | 0.00 | 0.00 | 83 | 1008.6 |
| 20260506151946 | 66 | 182 | 0.0 | 3.5 | 0.00 | 0.00 | 0.00 | 82 | 1008.6 |
| 20260506151843 | 66 | 182 | 0.0 | 3.5 | 0.00 | 0.00 | 0.00 | 82 | 1008.6 |
| 20260506151745 | 66 | 181 | 0.0 | 3.5 | 0.00 | 0.00 | 0.00 | 81 | 1008.6 |
| 20260506151644 | 66 | 181 | 0.0 | 3.5 | 0.00 | 0.00 | 0.00 | 81 | 1008.6 |
| 20260506151557 | 66 | 181 | 0.0 | 3.5 | 0.00 | 0.00 | 0.00 | 81 | 1008.6 |
| 20260506151343 | 66 | 181 | 0.0 | 3.5 | 0.00 | 0.00 | 0.00 | 80 | 1008.6 |
| 20260506151240 | 66 | 182 | 0.0 | 3.5 | 0.00 | 0.00 | 0.00 | 80 | 1008.6 |
| 20260506151140 | 66 | 264 | 0.0 | 3.5 | 0.00 | 0.00 | 0.00 | 80 | 1008.6 |
| 20260506151041 | 67 | 280 | 0.0 | 3.5 | 0.00 | 0.00 | 0.00 | 81 | 1008.6 |
| 20260506150937 | 67 | 117 | 0.0 | 3.5 | 0.00 | 0.00 | 0.00 | 80 | 1008.7 |
| 20260506150838 | 67 | 191 | 0.0 | 3.5 | 0.00 | 0.00 | 0.00 | 80 | 1008.7 |
| 20260506150736 | 67 | 191 | 0.0 | 3.5 | 0.00 | 0.00 | 0.00 | 80 | 1008.6 |
| 20260506150636 | 67 | 191 | 0.0 | 3.5 | 0.00 | 0.00 | 0.00 | 79 | 1008.6 |
| 20260506150535 | 67 | 191 | 0.9 | 3.5 | 0.00 | 0.00 | 0.00 | 78 | 1008.6 |
| 20260506150434 | 67 | 208 | 0.9 | 3.5 | 0.00 | 0.00 | 0.00 | 78 | 1008.7 |
| 20260506150334 | 67 | 208 | 0.9 | 3.5 | 0.00 | 0.00 | 0.00 | 78 | 1008.8 |
| 20260506150305 | 67 | 220 | 0.9 | 3.5 | 0.00 | 0.00 | 0.00 | 77 | 1008.8 |
| 20260506145930 | 67 | 170 | 0.9 | 3.5 | 0.00 | 0.00 | 0.00 | 76 | 1008.9 |
| 20260506145830 | 67 | 172 | 0.9 | 3.5 | 0.00 | 0.00 | 0.00 | 76 | 1008.9 |
| 20260506145746 | 67 | 138 | 0.9 | 3.5 | 0.00 | 0.00 | 0.00 | 76 | 1008.9 |
| 20260506145527 | 67 | 137 | 0.9 | 3.5 | 0.00 | 0.00 | 0.00 | 76 | 1008.9 |
| 20260506145425 | 67 | 227 | 0.9 | 3.5 | 0.00 | 0.00 | 0.00 | 76 | 1008.9 |
| 20260506145323 | 67 | 144 | 0.9 | 3.5 | 0.00 | 0.00 | 0.00 | 76 | 1008.8 |
| 20260506145224 | 67 | 167 | 0.9 | 3.5 | 0.00 | 0.00 | 0.00 | 76 | 1008.9 |
| 20260506145125 | 67 | 175 | 0.9 | 3.5 | 0.00 | 0.00 | 0.00 | 76 | 1008.9 |
| 20260506145023 | 67 | 175 | 0.9 | 3.5 | 0.00 | 0.00 | 0.00 | 76 | 1008.8 |
| 20260506144922 | 67 | 123 | 0.9 | 3.5 | 0.00 | 0.00 | 0.00 | 76 | 1008.8 |
| 20260506144822 | 67 | 132 | 0.9 | 3.5 | 0.00 | 0.00 | 0.00 | 76 | 1008.8 |
| 20260506144721 | 67 | 115 | 0.9 | 3.5 | 0.00 | 0.00 | 0.00 | 76 | 1008.8 |
| 20260506144619 | 67 | 201 | 0.9 | 3.5 | 0.00 | 0.00 | 0.00 | 76 | 1008.8 |
| 20260506144521 | 67 | 211 | 0.9 | 3.5 | 0.00 | 0.00 | 0.00 | 76 | 1008.9 |
| 20260506144419 | 67 | 211 | 0.9 | 4.3 | 0.00 | 0.00 | 0.00 | 76 | 1008.8 |
| 20260506144318 | 67 | 211 | 0.9 | 4.3 | 0.00 | 0.00 | 0.00 | 75 | 1008.8 |
| 20260506144217 | 67 | 211 | 0.9 | 4.3 | 0.00 | 0.00 | 0.00 | 75 | 1008.8 |
| 20260506144132 | 67 | 211 | 0.9 | 4.3 | 0.00 | 0.00 | 0.00 | 75 | 1008.8 |
| 20260506143913 | 67 | 203 | 0.9 | 4.3 | 0.00 | 0.00 | 0.00 | 75 | 1008.7 |
| 20260506143814 | 67 | 193 | 0.9 | 4.3 | 0.00 | 0.00 | 0.00 | 75 | 1008.7 |
| 20260506143745 | 67 | 196 | 0.9 | 4.3 | 0.00 | 0.00 | 0.00 | 75 | 1008.7 |
| 20260506143409 | 67 | 130 | 0.9 | 3.5 | 0.00 | 0.00 | 0.00 | 75 | 1008.8 |
| 20260506143310 | 67 | 209 | 0.9 | 3.5 | 0.00 | 0.00 | 0.00 | 75 | 1008.9 |
| 20260506143209 | 67 | 208 | 0.9 | 3.5 | 0.00 | 0.00 | 0.00 | 75 | 1008.9 |
| 20260506143109 | 67 | 188 | 0.9 | 3.5 | 0.00 | 0.00 | 0.00 | 75 | 1008.9 |
| 20260506143008 | 67 | 183 | 0.9 | 3.5 | 0.00 | 0.00 | 0.00 | 75 | 1008.8 |
| 20260506142906 | 67 | 196 | 0.9 | 3.5 | 0.00 | 0.00 | 0.00 | 75 | 1008.8 |
| 20260506142806 | 67 | 222 | 0.9 | 4.3 | 0.00 | 0.00 | 0.00 | 75 | 1008.9 |
| 20260506142706 | 67 | 222 | 0.9 | 4.3 | 0.00 | 0.00 | 0.00 | 75 | 1008.8 |
| 20260506142606 | 67 | 221 | 0.9 | 4.3 | 0.00 | 0.00 | 0.00 | 75 | 1008.7 |
| 20260506142505 | 67 | 207 | 0.9 | 5.2 | 0.00 | 0.00 | 0.00 | 76 | 1008.8 |
| 20260506142407 | 67 | 199 | 0.9 | 5.2 | 0.00 | 0.00 | 0.00 | 76 | 1008.8 |
| 20260506142306 | 67 | 235 | 0.9 | 5.2 | 0.00 | 0.00 | 0.00 | 75 | 1008.8 |
| 20260506142205 | 67 | 235 | 0.9 | 5.2 | 0.00 | 0.00 | 0.00 | 75 | 1008.7 |
| 20260506142126 | 67 | 234 | 1.7 | 5.2 | 0.00 | 0.00 | 0.00 | 75 | 1008.8 |
| 20260506142110 | 67 | 233 | 1.7 | 5.2 | 0.00 | 0.00 | 0.00 | 75 | 1008.7 |
| 20260506141507 | 67 | 144 | 1.7 | 6.1 | 0.00 | 0.00 | 0.00 | 75 | 1008.6 |
| 20260506141407 | 67 | 143 | 1.7 | 6.1 | 0.00 | 0.00 | 0.00 | 75 | 1008.7 |
| 20260506141306 | 67 | 138 | 1.7 | 6.1 | 0.00 | 0.00 | 0.00 | 75 | 1008.7 |
| 20260506141221 | 67 | 227 | 1.7 | 6.1 | 0.00 | 0.00 | 0.00 | 75 | 1008.7 |
| 20260506141004 | 67 | 169 | 1.7 | 6.1 | 0.00 | 0.00 | 0.00 | 75 | 1008.7 |
| 20260506140919 | 67 | 108 | 0.9 | 6.1 | 0.00 | 0.00 | 0.00 | 75 | 1008.7 |
| 20260506140720 | 67 | 106 | 0.9 | 5.2 | 0.00 | 0.00 | 0.00 | 75 | 1008.6 |
| 20260506140504 | 67 | 173 | 0.9 | 3.5 | 0.00 | 0.00 | 0.00 | 76 | 1008.7 |
| 20260506140403 | 67 | 210 | 0.9 | 6.1 | 0.00 | 0.00 | 0.00 | 76 | 1008.7 |
| 20260506140304 | 67 | 173 | 0.9 | 6.1 | 0.00 | 0.00 | 0.00 | 76 | 1008.7 |
| 20260506140204 | 67 | 173 | 0.9 | 6.1 | 0.00 | 0.00 | 0.00 | 76 | 1008.8 |
| 20260506140136 | 67 | 129 | 0.9 | 6.1 | 0.00 | 0.00 | 0.00 | 75 | 1008.7 |
| 20260506135802 | 67 | 159 | 0.9 | 6.1 | 0.00 | 0.00 | 0.00 | 75 | 1008.6 |
| 20260506135702 | 67 | 175 | 0.9 | 6.1 | 0.00 | 0.00 | 0.00 | 75 | 1008.7 |
| 20260506135601 | 67 | 153 | 0.9 | 6.1 | 0.00 | 0.00 | 0.00 | 75 | 1008.6 |
| 20260506135502 | 67 | 125 | 0.9 | 6.1 | 0.00 | 0.00 | 0.00 | 75 | 1008.6 |
| 20260506135404 | 67 | 189 | 0.9 | 3.5 | 0.00 | 0.00 | 0.00 | 75 | 1008.7 |
| 20260506135305 | 67 | 128 | 0.9 | 3.5 | 0.00 | 0.00 | 0.00 | 75 | 1008.6 |
| 20260506135219 | 67 | 211 | 0.9 | 3.5 | 0.00 | 0.00 | 0.00 | 75 | 1008.8 |
| 20260506135001 | 67 | 167 | 0.9 | 3.5 | 0.00 | 0.00 | 0.00 | 75 | 1008.8 |
| 20260506134904 | 67 | 253 | 0.9 | 3.5 | 0.00 | 0.00 | 0.00 | 76 | 1008.8 |
| 20260506134817 | 67 | 253 | 0.9 | 3.5 | 0.00 | 0.00 | 0.00 | 75 | 1008.8 |
| 20260506134601 | 67 | 269 | 0.9 | 3.5 | 0.00 | 0.00 | 0.00 | 75 | 1008.8 |
| 20260506134502 | 67 | 269 | 0.9 | 3.5 | 0.00 | 0.00 | 0.00 | 75 | 1008.9 |
| 20260506134357 | 67 | 212 | 0.9 | 3.5 | 0.00 | 0.00 | 0.00 | 75 | 1008.9 |
| 20260506134257 | 67 | 180 | 0.9 | 2.6 | 0.00 | 0.00 | 0.00 | 75 | 1008.9 |
| 20260506134212 | 67 | 139 | 0.9 | 6.1 | 0.00 | 0.00 | 0.00 | 75 | 1008.9 |
| 20260506133953 | 67 | 130 | 0.9 | 6.1 | 0.00 | 0.00 | 0.00 | 75 | 1008.9 |
| 20260506133853 | 67 | 145 | 0.9 | 6.1 | 0.00 | 0.00 | 0.00 | 75 | 1009.0 |
| 20260506133754 | 67 | 148 | 0.9 | 6.1 | 0.00 | 0.00 | 0.00 | 76 | 1009.0 |
| 20260506133653 | 67 | 140 | 0.9 | 6.1 | 0.00 | 0.00 | 0.00 | 76 | 1008.9 |
| 20260506133551 | 67 | 140 | 0.9 | 6.1 | 0.00 | 0.00 | 0.00 | 76 | 1008.9 |
| 20260506133507 | 67 | 153 | 0.9 | 6.1 | 0.00 | 0.00 | 0.00 | 76 | 1008.9 |
| 20260506133250 | 67 | 150 | 0.9 | 6.1 | 0.00 | 0.00 | 0.00 | 76 | 1009.0 |
| 20260506133150 | 67 | 136 | 0.9 | 5.2 | 0.00 | 0.00 | 0.00 | 76 | 1009.0 |
| 20260506133047 | 67 | 130 | 0.9 | 5.2 | 0.00 | 0.00 | 0.00 | 75 | 1008.9 |
| 20260506133000 | 67 | 244 | 1.7 | 6.1 | 0.00 | 0.00 | 0.00 | 75 | 1009.0 |
| 20260506132748 | 67 | 175 | 0.9 | 6.1 | 0.00 | 0.00 | 0.00 | 75 | 1009.0 |
| 20260506132648 | 67 | 211 | 0.9 | 6.1 | 0.00 | 0.00 | 0.00 | 75 | 1009.0 |
| 20260506132600 | 67 | 230 | 0.9 | 6.1 | 0.00 | 0.00 | 0.00 | 76 | 1009.1 |
| 20260506132347 | 67 | 232 | 0.9 | 6.1 | 0.00 | 0.00 | 0.00 | 76 | 1009.1 |
| 20260506132246 | 67 | 180 | 0.9 | 6.1 | 0.00 | 0.00 | 0.00 | 76 | 1009.1 |
| 20260506132202 | 67 | 202 | 0.9 | 6.1 | 0.00 | 0.00 | 0.00 | 76 | 1009.1 |
| 20260506131946 | 67 | 234 | 0.9 | 4.3 | 0.00 | 0.00 | 0.00 | 76 | 1008.9 |
| 20260506131843 | 67 | 121 | 0.9 | 3.5 | 0.00 | 0.00 | 0.00 | 77 | 1008.9 |
| 20260506131759 | 67 | 133 | 0.9 | 3.5 | 0.00 | 0.00 | 0.00 | 77 | 1008.9 |
| 20260506131542 | 67 | 102 | 0.9 | 3.5 | 0.00 | 0.00 | 0.00 | 77 | 1008.9 |
| 20260506131441 | 66 | 169 | 0.9 | 3.5 | 0.00 | 0.00 | 0.00 | 77 | 1008.9 |
| 20260506131339 | 66 | 161 | 0.9 | 3.5 | 0.00 | 0.00 | 0.00 | 77 | 1008.8 |
| 20260506131240 | 66 | 183 | 0.9 | 3.5 | 0.00 | 0.00 | 0.00 | 77 | 1008.9 |
| 20260506131138 | 66 | 208 | 0.9 | 3.5 | 0.00 | 0.00 | 0.00 | 77 | 1008.9 |
| 20260506131038 | 66 | 206 | 0.9 | 3.5 | 0.00 | 0.00 | 0.00 | 77 | 1009.0 |
| 20260506130938 | 66 | 217 | 0.9 | 3.5 | 0.00 | 0.00 | 0.00 | 77 | 1009.1 |
| 20260506130835 | 66 | 175 | 0.9 | 3.5 | 0.00 | 0.00 | 0.00 | 77 | 1009.1 |
| 20260506130735 | 66 | 175 | 0.9 | 3.5 | 0.00 | 0.00 | 0.00 | 77 | 1009.1 |
| 20260506130651 | 66 | 175 | 0.9 | 3.5 | 0.00 | 0.00 | 0.00 | 77 | 1009.1 |
| 20260506130434 | 66 | 169 | 0.9 | 3.5 | 0.00 | 0.00 | 0.00 | 78 | 1009.1 |
| 20260506130330 | 66 | 202 | 0.9 | 2.6 | 0.00 | 0.00 | 0.00 | 78 | 1009.1 |
| 20260506130232 | 66 | 201 | 0.9 | 2.6 | 0.00 | 0.00 | 0.00 | 78 | 1009.0 |
| 20260506130130 | 66 | 201 | 0.9 | 2.6 | 0.00 | 0.00 | 0.00 | 78 | 1009.0 |
| 20260506130030 | 66 | 200 | 0.9 | 2.6 | 0.00 | 0.00 | 0.00 | 78 | 1009.0 |
| 20260506125930 | 66 | 200 | 0.9 | 2.6 | 0.00 | 0.00 | 0.00 | 78 | 1009.0 |
| 20260506125827 | 66 | 200 | 0.9 | 2.6 | 0.00 | 0.00 | 0.00 | 78 | 1009.0 |
| 20260506125744 | 66 | 200 | 0.9 | 2.6 | 0.00 | 0.00 | 0.00 | 78 | 1009.0 |
| 20260506125526 | 66 | 116 | 0.9 | 2.6 | 0.00 | 0.00 | 0.00 | 78 | 1008.9 |
| 20260506125426 | 66 | 116 | 0.9 | 2.6 | 0.00 | 0.00 | 0.00 | 78 | 1008.9 |
| 20260506125323 | 66 | 111 | 0.9 | 3.5 | 0.00 | 0.00 | 0.00 | 78 | 1008.9 |
| 20260506125221 | 66 | 137 | 0.9 | 3.5 | 0.00 | 0.00 | 0.00 | 78 | 1008.8 |
| 20260506125119 | 66 | 136 | 0.0 | 3.5 | 0.00 | 0.00 | 0.00 | 78 | 1008.8 |
| 20260506125019 | 66 | 125 | 0.0 | 3.5 | 0.00 | 0.00 | 0.00 | 78 | 1008.8 |
| 20260506124933 | 66 | 123 | 0.0 | 3.5 | 0.00 | 0.00 | 0.00 | 78 | 1008.9 |
| 20260506124717 | 66 | 213 | 0.0 | 3.5 | 0.00 | 0.00 | 0.00 | 78 | 1008.8 |
| 20260506124616 | 66 | 255 | 0.0 | 3.5 | 0.00 | 0.00 | 0.00 | 78 | 1008.8 |
| 20260506124516 | 66 | 255 | 0.0 | 3.5 | 0.00 | 0.00 | 0.00 | 78 | 1008.7 |
| 20260506124417 | 66 | 255 | 0.9 | 3.5 | 0.00 | 0.00 | 0.00 | 78 | 1008.7 |
| 20260506124315 | 66 | 138 | 0.9 | 4.3 | 0.00 | 0.00 | 0.00 | 78 | 1008.7 |
| 20260506124215 | 66 | 138 | 0.9 | 4.3 | 0.00 | 0.00 | 0.00 | 78 | 1008.7 |
| 20260506124114 | 66 | 130 | 0.9 | 4.3 | 0.00 | 0.00 | 0.00 | 78 | 1008.6 |
| 20260506124013 | 65 | 112 | 0.9 | 4.3 | 0.00 | 0.00 | 0.00 | 78 | 1008.6 |
| 20260506123929 | 65 | 177 | 0.9 | 4.3 | 0.00 | 0.00 | 0.00 | 78 | 1008.6 |
| 20260506123728 | 65 | 148 | 0.9 | 4.3 | 0.00 | 0.00 | 0.00 | 78 | 1008.6 |
| 20260506123513 | 65 | 186 | 0.9 | 4.3 | 0.00 | 0.00 | 0.00 | 79 | 1008.6 |
| 20260506123412 | 65 | 150 | 0.0 | 4.3 | 0.00 | 0.00 | 0.00 | 79 | 1008.6 |
| 20260506123312 | 65 | 205 | 0.0 | 3.5 | 0.00 | 0.00 | 0.00 | 79 | 1008.6 |
| 20260506123212 | 65 | 205 | 0.0 | 3.5 | 0.00 | 0.00 | 0.00 | 79 | 1008.6 |
| 20260506123110 | 65 | 205 | 0.0 | 3.5 | 0.00 | 0.00 | 0.00 | 79 | 1008.6 |
| 20260506123009 | 65 | 219 | 0.9 | 6.1 | 0.00 | 0.00 | 0.00 | 79 | 1008.7 |
| 20260506122907 | 65 | 219 | 0.9 | 6.1 | 0.00 | 0.00 | 0.00 | 79 | 1008.7 |
| 20260506122808 | 65 | 101 | 0.0 | 6.1 | 0.00 | 0.00 | 0.00 | 79 | 1008.7 |
| 20260506122706 | 65 | 123 | 0.0 | 6.1 | 0.00 | 0.00 | 0.00 | 79 | 1008.7 |
| 20260506122606 | 65 | 238 | 0.9 | 6.1 | 0.00 | 0.00 | 0.00 | 79 | 1008.7 |
| 20260506122504 | 65 | 238 | 0.9 | 6.1 | 0.00 | 0.00 | 0.00 | 79 | 1008.7 |
| 20260506122404 | 65 | 238 | 0.9 | 6.1 | 0.00 | 0.00 | 0.00 | 80 | 1008.7 |
| 20260506122305 | 65 | 167 | 0.9 | 6.1 | 0.00 | 0.00 | 0.00 | 79 | 1008.7 |
| 20260506122203 | 65 | 167 | 0.9 | 6.1 | 0.00 | 0.00 | 0.00 | 79 | 1008.7 |
| 20260506122104 | 65 | 167 | 0.9 | 6.1 | 0.00 | 0.00 | 0.00 | 80 | 1008.8 |
| 20260506122001 | 65 | 167 | 0.9 | 4.3 | 0.00 | 0.00 | 0.00 | 79 | 1008.8 |
| 20260506121901 | 65 | 167 | 0.9 | 4.3 | 0.00 | 0.00 | 0.00 | 79 | 1008.8 |
| 20260506121802 | 65 | 167 | 0.9 | 4.3 | 0.00 | 0.00 | 0.00 | 79 | 1008.8 |
| 20260506121701 | 65 | 175 | 0.9 | 4.3 | 0.00 | 0.00 | 0.00 | 79 | 1008.8 |
| 20260506121602 | 65 | 140 | 0.9 | 4.3 | 0.00 | 0.00 | 0.00 | 80 | 1008.9 |
| 20260506121501 | 65 | 160 | 0.0 | 4.3 | 0.00 | 0.00 | 0.00 | 79 | 1008.9 |
| 20260506121358 | 65 | 179 | 0.0 | 2.6 | 0.00 | 0.00 | 0.00 | 79 | 1008.8 |
| 20260506121331 | 65 | 179 | 0.0 | 2.6 | 0.00 | 0.00 | 0.00 | 80 | 1008.8 |
| 20260506121024 | 65 | 194 | 0.0 | 2.6 | 0.00 | 0.00 | 0.00 | 80 | 1008.8 |
| 20260506120654 | 65 | 185 | 0.0 | 3.5 | 0.00 | 0.00 | 0.00 | 80 | 1008.9 |
| 20260506120553 | 65 | 185 | 0.0 | 3.5 | 0.00 | 0.00 | 0.00 | 80 | 1008.9 |
| 20260506120454 | 65 | 185 | 0.0 | 3.5 | 0.00 | 0.00 | 0.00 | 80 | 1008.9 |
| 20260506120351 | 65 | 189 | 0.0 | 3.5 | 0.00 | 0.00 | 0.00 | 80 | 1008.9 |
| 20260506120251 | 65 | 189 | 0.0 | 3.5 | 0.00 | 0.00 | 0.00 | 80 | 1009.0 |
| 20260506120151 | 65 | 182 | 0.0 | 3.5 | 0.00 | 0.00 | 0.00 | 80 | 1009.0 |
| 20260506120134 | 65 | 183 | 0.0 | 3.5 | 0.00 | 0.00 | 0.00 | 80 | 1008.9 |
| 20260506115648 | 65 | 195 | 0.0 | 4.3 | 0.00 | 0.00 | 0.00 | 80 | 1009.1 |
| 20260506115548 | 65 | 194 | 0.0 | 4.3 | 0.00 | 0.00 | 0.00 | 80 | 1009.0 |
| 20260506115447 | 65 | 194 | 0.0 | 4.3 | 0.00 | 0.00 | 0.00 | 80 | 1009.0 |
| 20260506115345 | 65 | 194 | 0.0 | 4.3 | 0.00 | 0.00 | 0.00 | 80 | 1009.1 |
| 20260506115246 | 65 | 194 | 0.0 | 4.3 | 0.00 | 0.00 | 0.00 | 80 | 1009.0 |
| 20260506115146 | 65 | 194 | 0.9 | 5.2 | 0.00 | 0.00 | 0.00 | 80 | 1009.0 |
| 20260506115046 | 65 | 246 | 0.9 | 6.1 | 0.00 | 0.00 | 0.00 | 80 | 1009.1 |
| 20260506114946 | 65 | 247 | 0.9 | 6.1 | 0.00 | 0.00 | 0.00 | 80 | 1009.1 |
| 20260506114845 | 65 | 247 | 0.9 | 6.1 | 0.00 | 0.00 | 0.00 | 80 | 1009.1 |
| 20260506114814 | 65 | 136 | 0.9 | 6.1 | 0.00 | 0.00 | 0.00 | 80 | 1009.2 |
| 20260506114444 | 65 | 115 | 0.9 | 6.1 | 0.00 | 0.00 | 0.00 | 80 | 1009.2 |
| 20260506114345 | 65 | 115 | 0.9 | 6.1 | 0.00 | 0.00 | 0.00 | 80 | 1009.2 |
| 20260506114242 | 65 | 115 | 0.9 | 6.1 | 0.00 | 0.00 | 0.00 | 80 | 1009.2 |
| 20260506114140 | 65 | 235 | 0.9 | 6.1 | 0.00 | 0.00 | 0.00 | 80 | 1009.2 |
| 20260506114055 | 65 | 188 | 0.0 | 3.5 | 0.00 | 0.00 | 0.00 | 80 | 1009.2 |
| 20260506113839 | 65 | 194 | 0.9 | 3.5 | 0.00 | 0.00 | 0.00 | 80 | 1009.0 |
| 20260506113739 | 65 | 126 | 0.0 | 3.5 | 0.00 | 0.00 | 0.00 | 80 | 1009.1 |
| 20260506113639 | 65 | 126 | 0.9 | 3.5 | 0.00 | 0.00 | 0.00 | 80 | 1009.2 |
| 20260506113539 | 65 | 120 | 0.9 | 3.5 | 0.00 | 0.00 | 0.00 | 80 | 1009.1 |
| 20260506113456 | 65 | 119 | 0.9 | 3.5 | 0.00 | 0.00 | 0.00 | 80 | 1009.2 |
| 20260506113240 | 64 | 160 | 0.9 | 3.5 | 0.00 | 0.00 | 0.00 | 80 | 1009.1 |
| 20260506113140 | 64 | 160 | 0.9 | 3.5 | 0.00 | 0.00 | 0.00 | 80 | 1009.1 |
| 20260506113039 | 64 | 160 | 0.9 | 3.5 | 0.00 | 0.00 | 0.00 | 80 | 1009.1 |
| 20260506112940 | 64 | 136 | 0.9 | 3.5 | 0.00 | 0.00 | 0.00 | 80 | 1009.1 |
| 20260506112839 | 64 | 127 | 0.9 | 3.5 | 0.00 | 0.00 | 0.00 | 80 | 1009.1 |
| 20260506112736 | 64 | 146 | 0.9 | 3.5 | 0.00 | 0.00 | 0.00 | 80 | 1009.1 |
| 20260506112634 | 64 | 129 | 0.9 | 3.5 | 0.00 | 0.00 | 0.00 | 80 | 1009.1 |
| 20260506112551 | 64 | 117 | 0.9 | 3.5 | 0.00 | 0.00 | 0.00 | 80 | 1009.1 |
| 20260506112351 | 64 | 271 | 0.9 | 3.5 | 0.00 | 0.00 | 0.00 | 80 | 1009.1 |
| 20260506112204 | 64 | 162 | 0.9 | 3.5 | 0.00 | 0.00 | 0.00 | 81 | 1009.1 |
| 20260506111833 | 64 | 141 | 0.9 | 3.5 | 0.00 | 0.00 | 0.00 | 81 | 1009.1 |
| 20260506111734 | 64 | 161 | 0.9 | 3.5 | 0.00 | 0.00 | 0.00 | 81 | 1009.1 |
| 20260506111632 | 64 | 161 | 0.9 | 3.5 | 0.00 | 0.00 | 0.00 | 81 | 1009.1 |
| 20260506111532 | 64 | 156 | 0.9 | 2.6 | 0.00 | 0.00 | 0.00 | 81 | 1009.1 |
| 20260506111430 | 64 | 155 | 0.9 | 7.8 | 0.00 | 0.00 | 0.00 | 81 | 1009.0 |
| 20260506111329 | 64 | 155 | 0.9 | 7.8 | 0.00 | 0.00 | 0.00 | 81 | 1009.0 |
| 20260506111229 | 64 | 157 | 0.9 | 7.8 | 0.00 | 0.00 | 0.00 | 81 | 1009.1 |
| 20260506111145 | 64 | 155 | 0.9 | 7.8 | 0.00 | 0.00 | 0.00 | 81 | 1009.1 |
| 20260506110929 | 64 | 155 | 0.9 | 7.8 | 0.00 | 0.00 | 0.00 | 81 | 1009.1 |
| 20260506110828 | 64 | 155 | 0.9 | 7.8 | 0.00 | 0.00 | 0.00 | 81 | 1009.0 |
| 20260506110745 | 64 | 140 | 0.9 | 7.8 | 0.00 | 0.00 | 0.00 | 81 | 1009.0 |
| 20260506110528 | 64 | 69 | 0.0 | 7.8 | 0.00 | 0.00 | 0.00 | 81 | 1009.0 |
| 20260506110427 | 64 | 140 | 0.0 | 3.5 | 0.00 | 0.00 | 0.00 | 81 | 1009.0 |
| 20260506110327 | 64 | 140 | 0.0 | 3.5 | 0.00 | 0.00 | 0.00 | 82 | 1008.9 |
| 20260506110225 | 64 | 281 | 0.0 | 2.6 | 0.00 | 0.00 | 0.00 | 82 | 1009.0 |
| 20260506110125 | 64 | 290 | 0.0 | 2.6 | 0.00 | 0.00 | 0.00 | 82 | 1008.9 |
| 20260506110027 | 64 | 115 | 0.0 | 1.7 | 0.00 | 0.00 | 0.00 | 82 | 1009.0 |
| 20260506105940 | 64 | 115 | 0.0 | 0.9 | 0.00 | 0.00 | 0.00 | 82 | 1009.0 |
| 20260506105724 | 63 | 130 | 0.0 | 2.6 | 0.00 | 0.00 | 0.00 | 83 | 1009.0 |
| 20260506105626 | 63 | 130 | 0.0 | 2.6 | 0.00 | 0.00 | 0.00 | 83 | 1009.0 |
| 20260506105540 | 63 | 186 | 0.0 | 2.6 | 0.00 | 0.00 | 0.00 | 83 | 1009.0 |
| 20260506105355 | 63 | 188 | 0.0 | 2.6 | 0.00 | 0.00 | 0.00 | 83 | 1009.0 |
| 20260506105025 | 63 | 188 | 0.0 | 2.6 | 0.00 | 0.00 | 0.00 | 83 | 1008.9 |
| 20260506104926 | 63 | 188 | 0.0 | 2.6 | 0.00 | 0.00 | 0.00 | 82 | 1008.9 |
| 20260506104842 | 63 | 143 | 0.0 | 2.6 | 0.00 | 0.00 | 0.00 | 82 | 1008.8 |
| 20260506104626 | 63 | 138 | 0.0 | 1.7 | 0.00 | 0.00 | 0.00 | 83 | 1008.8 |
| 20260506104524 | 63 | 138 | 0.0 | 1.7 | 0.00 | 0.00 | 0.00 | 83 | 1008.8 |
| 20260506104426 | 63 | 138 | 0.0 | 0.9 | 0.00 | 0.00 | 0.00 | 83 | 1008.8 |
| 20260506104342 | 63 | 138 | 0.0 | 0.9 | 0.00 | 0.00 | 0.00 | 83 | 1008.8 |
| 20260506104126 | 63 | 114 | 0.0 | 0.9 | 0.00 | 0.00 | 0.00 | 83 | 1008.8 |
| 20260506104026 | 63 | 114 | 0.0 | 0.9 | 0.00 | 0.00 | 0.00 | 83 | 1008.8 |
| 20260506103927 | 63 | 114 | 0.0 | 2.6 | 0.00 | 0.00 | 0.00 | 83 | 1008.8 |
| 20260506103824 | 63 | 114 | 0.0 | 2.6 | 0.00 | 0.00 | 0.00 | 83 | 1008.8 |
| 20260506103725 | 63 | 114 | 0.0 | 2.6 | 0.00 | 0.00 | 0.00 | 83 | 1008.8 |
| 20260506103655 | 63 | 113 | 0.0 | 2.6 | 0.00 | 0.00 | 0.00 | 83 | 1008.8 |
| 20260506103325 | 63 | 130 | 0.0 | 2.6 | 0.00 | 0.00 | 0.00 | 83 | 1008.8 |
| 20260506103243 | 63 | 130 | 0.0 | 2.6 | 0.00 | 0.00 | 0.00 | 83 | 1008.9 |
| 20260506103025 | 63 | 119 | 0.0 | 2.6 | 0.00 | 0.00 | 0.00 | 83 | 1008.9 |
| 20260506102926 | 63 | 117 | 0.0 | 2.6 | 0.00 | 0.00 | 0.00 | 83 | 1008.9 |
| 20260506102826 | 63 | 126 | 0.0 | 2.6 | 0.00 | 0.00 | 0.00 | 83 | 1008.9 |
| 20260506102727 | 63 | 126 | 0.0 | 2.6 | 0.00 | 0.00 | 0.00 | 83 | 1008.9 |
| 20260506102625 | 63 | 126 | 0.0 | 2.6 | 0.00 | 0.00 | 0.00 | 83 | 1008.9 |
| 20260506102525 | 63 | 126 | 0.0 | 2.6 | 0.00 | 0.00 | 0.00 | 83 | 1008.9 |
| 20260506102424 | 63 | 124 | 0.0 | 2.6 | 0.00 | 0.00 | 0.00 | 83 | 1008.9 |
| 20260506102325 | 63 | 124 | 0.0 | 2.6 | 0.00 | 0.00 | 0.00 | 83 | 1008.9 |
| 20260506102226 | 63 | 124 | 0.0 | 2.6 | 0.00 | 0.00 | 0.00 | 83 | 1008.9 |
| 20260506102125 | 63 | 146 | 0.0 | 1.7 | 0.00 | 0.00 | 0.00 | 83 | 1008.9 |
| 20260506102025 | 63 | 136 | 0.0 | 1.7 | 0.00 | 0.00 | 0.00 | 83 | 1008.8 |
| 20260506101926 | 63 | 136 | 0.0 | 1.7 | 0.00 | 0.00 | 0.00 | 83 | 1008.9 |
| 20260506101824 | 63 | 135 | 0.0 | 1.7 | 0.00 | 0.00 | 0.00 | 83 | 1008.8 |
| 20260506101757 | 63 | 135 | 0.0 | 1.7 | 0.00 | 0.00 | 0.00 | 83 | 1008.8 |
| 20260506101426 | 63 | 129 | 0.0 | 1.7 | 0.00 | 0.00 | 0.00 | 83 | 1008.8 |
| 20260506101327 | 63 | 129 | 0.0 | 1.7 | 0.00 | 0.00 | 0.00 | 83 | 1008.8 |
| 20260506101226 | 63 | 129 | 0.0 | 1.7 | 0.00 | 0.00 | 0.00 | 83 | 1008.7 |
| 20260506101125 | 63 | 179 | 0.0 | 1.7 | 0.00 | 0.00 | 0.00 | 83 | 1008.8 |
| 20260506101026 | 63 | 179 | 0.0 | 2.6 | 0.00 | 0.00 | 0.00 | 83 | 1008.8 |
| 20260506100925 | 63 | 179 | 0.0 | 2.6 | 0.00 | 0.00 | 0.00 | 83 | 1008.8 |
| 20260506100842 | 63 | 179 | 0.0 | 2.6 | 0.00 | 0.00 | 0.00 | 83 | 1008.7 |
| 20260506100627 | 63 | 113 | 0.0 | 2.6 | 0.00 | 0.00 | 0.00 | 83 | 1008.8 |
| 20260506100525 | 63 | 113 | 0.0 | 2.6 | 0.00 | 0.00 | 0.00 | 83 | 1008.8 |
| 20260506100427 | 63 | 113 | 0.0 | 2.6 | 0.00 | 0.00 | 0.00 | 83 | 1008.8 |
| 20260506100339 | 63 | 113 | 0.0 | 2.6 | 0.00 | 0.00 | 0.00 | 83 | 1008.8 |
| 20260506100209 | 63 | 113 | 0.0 | 2.6 | 0.00 | 0.00 | 0.00 | 83 | 1008.8 |
| 20260506095725 | 63 | 154 | 0.0 | 1.7 | 0.00 | 0.00 | 0.00 | 83 | 1008.8 |
| 20260506095640 | 63 | 155 | 0.0 | 0.9 | 0.00 | 0.00 | 0.00 | 83 | 1008.8 |
| 20260506095426 | 63 | 113 | 0.0 | 0.9 | 0.00 | 0.00 | 0.00 | 83 | 1008.7 |
| 20260506095325 | 63 | 113 | 0.0 | 0.9 | 0.00 | 0.00 | 0.00 | 83 | 1008.6 |
| 20260506095226 | 63 | 113 | 0.0 | 0.9 | 0.00 | 0.00 | 0.00 | 83 | 1008.6 |
| 20260506095124 | 63 | 114 | 0.0 | 0.9 | 0.00 | 0.00 | 0.00 | 83 | 1008.6 |
| 20260506095054 | 63 | 142 | 0.0 | 2.6 | 0.00 | 0.00 | 0.00 | 84 | 1008.6 |
| 20260506094726 | 63 | 140 | 0.0 | 2.6 | 0.00 | 0.00 | 0.00 | 83 | 1008.7 |
| 20260506094624 | 63 | 140 | 0.0 | 2.6 | 0.00 | 0.00 | 0.00 | 83 | 1008.6 |
| 20260506094526 | 63 | 134 | 0.0 | 2.6 | 0.00 | 0.00 | 0.00 | 84 | 1008.6 |
| 20260506094426 | 63 | 135 | 0.0 | 2.6 | 0.00 | 0.00 | 0.00 | 83 | 1008.6 |
| 20260506094325 | 63 | 135 | 0.0 | 2.6 | 0.00 | 0.00 | 0.00 | 83 | 1008.6 |
| 20260506094224 | 63 | 134 | 0.0 | 2.6 | 0.00 | 0.00 | 0.00 | 83 | 1008.6 |
| 20260506094126 | 63 | 134 | 0.0 | 2.6 | 0.00 | 0.00 | 0.00 | 83 | 1008.6 |
| 20260506094040 | 63 | 150 | 0.0 | 1.7 | 0.00 | 0.00 | 0.00 | 83 | 1008.6 |
| 20260506093839 | 63 | 149 | 0.0 | 1.7 | 0.00 | 0.00 | 0.00 | 83 | 1008.7 |
| 20260506093641 | 63 | 149 | 0.0 | 1.7 | 0.00 | 0.00 | 0.00 | 83 | 1008.6 |
| 20260506093426 | 63 | 151 | 0.0 | 1.7 | 0.00 | 0.00 | 0.00 | 83 | 1008.5 |
| 20260506093326 | 63 | 151 | 0.0 | 1.7 | 0.00 | 0.00 | 0.00 | 83 | 1008.6 |
| 20260506093225 | 63 | 151 | 0.0 | 1.7 | 0.00 | 0.00 | 0.00 | 83 | 1008.6 |
| 20260506093124 | 63 | 158 | 0.0 | 1.7 | 0.00 | 0.00 | 0.00 | 83 | 1008.7 |
| 20260506093027 | 63 | 188 | 0.0 | 1.7 | 0.00 | 0.00 | 0.00 | 83 | 1008.7 |
| 20260506092925 | 63 | 189 | 0.0 | 1.7 | 0.00 | 0.00 | 0.00 | 83 | 1008.7 |
| 20260506092841 | 63 | 189 | 0.0 | 1.7 | 0.00 | 0.00 | 0.00 | 83 | 1008.6 |
| 20260506092626 | 63 | 189 | 0.0 | 1.7 | 0.00 | 0.00 | 0.00 | 83 | 1008.7 |
| 20260506092525 | 63 | 189 | 0.0 | 1.7 | 0.00 | 0.00 | 0.00 | 83 | 1008.7 |
| 20260506092426 | 63 | 189 | 0.0 | 1.7 | 0.00 | 0.00 | 0.00 | 83 | 1008.7 |
| 20260506092342 | 63 | 189 | 0.0 | 1.7 | 0.00 | 0.00 | 0.00 | 83 | 1008.7 |
| 20260506092125 | 63 | 127 | 0.0 | 1.7 | 0.00 | 0.00 | 0.00 | 83 | 1008.7 |
| 20260506092026 | 63 | 127 | 0.0 | 1.7 | 0.00 | 0.00 | 0.00 | 83 | 1008.7 |
| 20260506091927 | 62 | 127 | 0.0 | 1.7 | 0.00 | 0.00 | 0.00 | 83 | 1008.8 |
| 20260506091826 | 63 | 127 | 0.0 | 1.7 | 0.00 | 0.00 | 0.00 | 83 | 1008.8 |
| 20260506091726 | 62 | 127 | 0.0 | 1.7 | 0.00 | 0.00 | 0.00 | 83 | 1008.7 |
| 20260506091627 | 62 | 127 | 0.0 | 1.7 | 0.00 | 0.00 | 0.00 | 83 | 1008.8 |
| 20260506091542 | 62 | 141 | 0.0 | 1.7 | 0.00 | 0.00 | 0.00 | 83 | 1008.8 |
| 20260506091327 | 63 | 141 | 0.0 | 1.7 | 0.00 | 0.00 | 0.00 | 83 | 1008.8 |
| 20260506091226 | 63 | 141 | 0.0 | 1.7 | 0.00 | 0.00 | 0.00 | 83 | 1008.7 |
| 20260506091125 | 63 | 141 | 0.0 | 1.7 | 0.00 | 0.00 | 0.00 | 83 | 1008.8 |
| 20260506091041 | 63 | 141 | 0.0 | 1.7 | 0.00 | 0.00 | 0.00 | 83 | 1008.8 |
| 20260506090826 | 63 | 141 | 0.0 | 1.7 | 0.00 | 0.00 | 0.00 | 83 | 1008.8 |
| 20260506090740 | 63 | 141 | 0.0 | 1.7 | 0.00 | 0.00 | 0.00 | 83 | 1008.8 |
| 20260506090524 | 63 | 141 | 0.0 | 1.7 | 0.00 | 0.00 | 0.00 | 83 | 1008.9 |
| 20260506090426 | 63 | 141 | 0.0 | 1.7 | 0.00 | 0.00 | 0.00 | 83 | 1008.9 |
| 20260506090339 | 63 | 141 | 0.0 | 1.7 | 0.00 | 0.00 | 0.00 | 83 | 1008.9 |
| 20260506090126 | 63 | 141 | 0.0 | 1.7 | 0.00 | 0.00 | 0.00 | 83 | 1008.8 |
| 20260506090027 | 63 | 141 | 0.0 | 1.7 | 0.00 | 0.00 | 0.00 | 83 | 1008.9 |
| 20260506085925 | 63 | 142 | 0.0 | 1.7 | 0.00 | 0.00 | 0.00 | 83 | 1008.9 |
| 20260506085825 | 63 | 142 | 0.0 | 1.7 | 0.00 | 0.00 | 0.00 | 83 | 1008.8 |
| 20260506085724 | 63 | 142 | 0.0 | 1.7 | 0.00 | 0.00 | 0.00 | 83 | 1008.8 |
| 20260506085625 | 63 | 142 | 0.0 | 1.7 | 0.00 | 0.00 | 0.00 | 83 | 1008.8 |
| 20260506085525 | 63 | 142 | 0.0 | 1.7 | 0.00 | 0.00 | 0.00 | 83 | 1008.8 |
| 20260506085427 | 63 | 142 | 0.0 | 1.7 | 0.00 | 0.00 | 0.00 | 83 | 1008.8 |
| 20260506085324 | 63 | 142 | 0.0 | 1.7 | 0.00 | 0.00 | 0.00 | 83 | 1008.9 |
| 20260506085226 | 63 | 142 | 0.0 | 1.7 | 0.00 | 0.00 | 0.00 | 83 | 1008.9 |
| 20260506085140 | 63 | 142 | 0.0 | 1.7 | 0.00 | 0.00 | 0.00 | 82 | 1008.9 |
| 20260506084925 | 63 | 135 | 0.0 | 1.7 | 0.00 | 0.00 | 0.00 | 83 | 1008.9 |
| 20260506084824 | 63 | 135 | 0.0 | 1.7 | 0.00 | 0.00 | 0.00 | 83 | 1008.9 |
| 20260506084726 | 63 | 135 | 0.0 | 1.7 | 0.00 | 0.00 | 0.00 | 83 | 1008.9 |
| 20260506084626 | 63 | 135 | 0.0 | 1.7 | 0.00 | 0.00 | 0.00 | 83 | 1008.9 |
| 20260506084541 | 63 | 134 | 0.0 | 1.7 | 0.00 | 0.00 | 0.00 | 82 | 1008.9 |
| 20260506084326 | 63 | 113 | 0.0 | 0.9 | 0.00 | 0.00 | 0.00 | 82 | 1008.9 |
| 20260506084224 | 63 | 113 | 0.0 | 0.9 | 0.00 | 0.00 | 0.00 | 82 | 1008.9 |
| 20260506084126 | 63 | 113 | 0.0 | 0.9 | 0.00 | 0.00 | 0.00 | 82 | 1008.9 |
| 20260506084025 | 63 | 113 | 0.0 | 0.9 | 0.00 | 0.00 | 0.00 | 82 | 1008.9 |
| 20260506083926 | 63 | 113 | 0.0 | 0.9 | 0.00 | 0.00 | 0.00 | 82 | 1009.0 |
| 20260506083839 | 63 | 113 | 0.0 | 0.9 | 0.00 | 0.00 | 0.00 | 82 | 1008.9 |
| 20260506083641 | 63 | 113 | 0.0 | 0.9 | 0.00 | 0.00 | 0.00 | 82 | 1008.9 |
| 20260506083439 | 63 | 113 | 0.0 | 1.7 | 0.00 | 0.00 | 0.00 | 82 | 1008.9 |
| 20260506083225 | 63 | 113 | 0.0 | 1.7 | 0.00 | 0.00 | 0.00 | 82 | 1008.9 |
| 20260506083126 | 63 | 113 | 0.0 | 1.7 | 0.00 | 0.00 | 0.00 | 82 | 1008.9 |
| 20260506083025 | 63 | 113 | 0.0 | 1.7 | 0.00 | 0.00 | 0.00 | 82 | 1008.9 |
| 20260506082925 | 63 | 115 | 0.0 | 1.7 | 0.00 | 0.00 | 0.00 | 82 | 1008.9 |
| 20260506082841 | 63 | 115 | 0.0 | 1.7 | 0.00 | 0.00 | 0.00 | 82 | 1008.9 |
| 20260506082637 | 63 | 114 | 0.0 | 1.7 | 0.00 | 0.00 | 0.00 | 82 | 1009.0 |
| 20260506082422 | 63 | 111 | 0.0 | 2.6 | 0.00 | 0.00 | 0.00 | 82 | 1009.0 |
| 20260506082318 | 63 | 111 | 0.0 | 2.6 | 0.00 | 0.00 | 0.00 | 81 | 1009.0 |
| 20260506082236 | 63 | 111 | 0.0 | 2.6 | 0.00 | 0.00 | 0.00 | 81 | 1009.0 |
| 20260506082017 | 63 | 111 | 0.0 | 2.6 | 0.00 | 0.00 | 0.00 | 81 | 1009.0 |
| 20260506081932 | 63 | 113 | 0.0 | 2.6 | 0.00 | 0.00 | 0.00 | 81 | 1008.9 |
| 20260506081719 | 63 | 113 | 0.0 | 2.6 | 0.00 | 0.00 | 0.00 | 81 | 1009.0 |
| 20260506081631 | 63 | 111 | 0.0 | 2.6 | 0.00 | 0.00 | 0.00 | 81 | 1008.9 |
| 20260506081416 | 63 | 123 | 0.0 | 0.9 | 0.00 | 0.00 | 0.00 | 81 | 1009.0 |
| 20260506081329 | 63 | 123 | 0.0 | 0.9 | 0.00 | 0.00 | 0.00 | 81 | 1009.0 |
| 20260506081113 | 63 | 123 | 0.0 | 0.9 | 0.00 | 0.00 | 0.00 | 81 | 1009.0 |
| 20260506081009 | 63 | 123 | 0.0 | 0.9 | 0.00 | 0.00 | 0.00 | 81 | 1009.1 |
| 20260506080923 | 63 | 123 | 0.0 | 0.9 | 0.00 | 0.00 | 0.00 | 81 | 1009.0 |
| 20260506080704 | 64 | 114 | 0.0 | 0.0 | 0.00 | 0.00 | 0.00 | 80 | 1009.0 |
| 20260506080621 | 64 | 114 | 0.0 | 0.0 | 0.00 | 0.00 | 0.00 | 80 | 1009.0 |
| 20260506080403 | 64 | 114 | 0.0 | 0.0 | 0.00 | 0.00 | 0.00 | 80 | 1009.0 |
| 20260506080317 | 64 | 114 | 0.0 | 0.0 | 0.00 | 0.00 | 0.00 | 80 | 1009.0 |
| 20260506073442 | 64 | 112 | 0.0 | 2.6 | 0.00 | 0.00 | 0.00 | 78 | 1009.0 |
| 20260506073340 | 64 | 112 | 0.0 | 2.6 | 0.00 | 0.00 | 0.00 | 78 | 1009.0 |
| 20260506073241 | 64 | 112 | 0.0 | 2.6 | 0.00 | 0.00 | 0.00 | 78 | 1009.0 |
| 20260506073139 | 64 | 112 | 0.0 | 2.6 | 0.00 | 0.00 | 0.00 | 78 | 1009.0 |
| 20260506073040 | 64 | 112 | 0.0 | 2.6 | 0.00 | 0.00 | 0.00 | 78 | 1009.0 |
| 20260506072940 | 64 | 133 | 0.0 | 0.9 | 0.00 | 0.00 | 0.00 | 78 | 1009.1 |
| 20260506072838 | 64 | 133 | 0.0 | 1.7 | 0.00 | 0.00 | 0.00 | 78 | 1009.0 |
| 20260506072739 | 64 | 131 | 0.0 | 1.7 | 0.00 | 0.00 | 0.00 | 78 | 1009.0 |
| 20260506072638 | 64 | 131 | 0.0 | 1.7 | 0.00 | 0.00 | 0.00 | 78 | 1009.0 |
| 20260506072551 | 64 | 131 | 0.0 | 1.7 | 0.00 | 0.00 | 0.00 | 78 | 1009.1 |
| 20260506072335 | 64 | 131 | 0.0 | 1.7 | 0.00 | 0.00 | 0.00 | 77 | 1009.0 |
| 20260506072231 | 64 | 132 | 0.0 | 1.7 | 0.00 | 0.00 | 0.00 | 77 | 1009.0 |
| 20260506072131 | 64 | 132 | 0.0 | 1.7 | 0.00 | 0.00 | 0.00 | 77 | 1009.0 |
| 20260506072031 | 64 | 132 | 0.0 | 1.7 | 0.00 | 0.00 | 0.00 | 77 | 1009.0 |
| 20260506071930 | 65 | 132 | 0.0 | 1.7 | 0.00 | 0.00 | 0.00 | 77 | 1009.0 |
| 20260506071832 | 65 | 227 | 0.0 | 1.7 | 0.00 | 0.00 | 0.00 | 77 | 1009.0 |
| 20260506071732 | 65 | 165 | 0.0 | 1.7 | 0.00 | 0.00 | 0.00 | 77 | 1009.0 |
| 20260506071630 | 65 | 176 | 0.0 | 1.7 | 0.00 | 0.00 | 0.00 | 77 | 1009.0 |
| 20260506071530 | 65 | 176 | 0.0 | 1.7 | 0.00 | 0.00 | 0.00 | 77 | 1009.0 |
| 20260506071431 | 65 | 176 | 0.0 | 1.7 | 0.00 | 0.00 | 0.00 | 76 | 1009.0 |
| 20260506071346 | 65 | 176 | 0.0 | 1.7 | 0.00 | 0.00 | 0.00 | 76 | 1009.0 |
| 20260506071130 | 65 | 176 | 0.0 | 1.7 | 0.00 | 0.00 | 0.00 | 76 | 1009.0 |
| 20260506071030 | 65 | 176 | 0.0 | 1.7 | 0.00 | 0.00 | 0.00 | 76 | 1009.0 |
| 20260506070930 | 65 | 176 | 0.0 | 1.7 | 0.00 | 0.00 | 0.00 | 76 | 1009.0 |
| 20260506070832 | 65 | 176 | 0.0 | 1.7 | 0.00 | 0.00 | 0.00 | 76 | 1009.0 |
| 20260506070742 | 65 | 176 | 0.0 | 1.7 | 0.00 | 0.00 | 0.00 | 76 | 1009.0 |
| 20260506070555 | 65 | 176 | 0.0 | 1.7 | 0.00 | 0.00 | 0.00 | 76 | 1009.0 |
| 20260506070222 | 65 | 175 | 0.0 | 1.7 | 0.00 | 0.00 | 0.00 | 76 | 1009.0 |
| 20260506070122 | 65 | 175 | 0.0 | 1.7 | 0.00 | 0.00 | 0.00 | 76 | 1009.0 |
| 20260506062506 | 65 | 192 | 0.0 | 2.6 | 0.00 | 0.00 | 0.00 | 74 | 1009.3 |
| 20260506062248 | 65 | 192 | 0.0 | 2.6 | 0.00 | 0.00 | 0.00 | 74 | 1009.3 |
| 20260506062146 | 65 | 192 | 0.0 | 2.6 | 0.00 | 0.00 | 0.00 | 74 | 1009.3 |
| 20260506062047 | 65 | 134 | 0.0 | 2.6 | 0.00 | 0.00 | 0.00 | 74 | 1009.2 |
| 20260506062000 | 65 | 134 | 0.0 | 2.6 | 0.00 | 0.00 | 0.00 | 74 | 1009.2 |
| 20260506061744 | 65 | 134 | 0.0 | 2.6 | 0.00 | 0.00 | 0.00 | 74 | 1009.2 |
| 20260506061658 | 65 | 134 | 0.0 | 2.6 | 0.00 | 0.00 | 0.00 | 74 | 1009.2 |
| 20260506061455 | 65 | 134 | 0.0 | 2.6 | 0.00 | 0.00 | 0.00 | 74 | 1009.3 |
| 20260506061256 | 65 | 134 | 0.0 | 2.6 | 0.00 | 0.00 | 0.00 | 73 | 1009.2 |
| 20260506061038 | 65 | 152 | 0.0 | 1.7 | 0.00 | 0.00 | 0.00 | 73 | 1009.3 |
| 20260506060937 | 65 | 152 | 0.0 | 1.7 | 0.00 | 0.00 | 0.00 | 73 | 1009.3 |
| 20260506060836 | 65 | 152 | 0.0 | 1.7 | 0.00 | 0.00 | 0.00 | 73 | 1009.2 |
| 20260506060734 | 65 | 152 | 0.0 | 0.9 | 0.00 | 0.00 | 0.00 | 73 | 1009.3 |
| 20260506060634 | 65 | 152 | 0.0 | 0.9 | 0.00 | 0.00 | 0.00 | 73 | 1009.3 |
| 20260506060534 | 65 | 152 | 0.0 | 0.9 | 0.00 | 0.00 | 0.00 | 73 | 1009.3 |
| 20260506060434 | 65 | 152 | 0.0 | 1.7 | 0.00 | 0.00 | 0.00 | 73 | 1009.3 |
| 20260506060334 | 65 | 152 | 0.0 | 1.7 | 0.00 | 0.00 | 0.00 | 73 | 1009.3 |
| 20260506060232 | 65 | 152 | 0.0 | 1.7 | 0.00 | 0.00 | 0.00 | 73 | 1009.2 |
| 20260506060130 | 65 | 152 | 0.0 | 1.7 | 0.00 | 0.00 | 0.00 | 73 | 1009.3 |
| 20260506051354 | 66 | 236 | 0.0 | 1.7 | 0.00 | 0.00 | 0.00 | 70 | 1009.7 |
| 20260506051253 | 66 | 236 | 0.0 | 2.6 | 0.00 | 0.00 | 0.00 | 70 | 1009.7 |
| 20260506051152 | 66 | 236 | 0.0 | 2.6 | 0.00 | 0.00 | 0.00 | 70 | 1009.7 |
| 20260506051050 | 66 | 236 | 0.0 | 2.6 | 0.00 | 0.00 | 0.00 | 70 | 1009.7 |
| 20260506051007 | 66 | 236 | 0.0 | 2.6 | 0.00 | 0.00 | 0.00 | 70 | 1009.7 |
| 20260506050751 | 67 | 236 | 0.0 | 2.6 | 0.00 | 0.00 | 0.00 | 70 | 1009.7 |
| 20260506050651 | 67 | 236 | 0.0 | 2.6 | 0.00 | 0.00 | 0.00 | 70 | 1009.7 |
| 20260506050552 | 67 | 236 | 0.0 | 2.6 | 0.00 | 0.00 | 0.00 | 70 | 1009.7 |
| 20260506050449 | 67 | 236 | 0.0 | 2.6 | 0.00 | 0.00 | 0.00 | 69 | 1009.7 |
| 20260506050348 | 67 | 236 | 0.0 | 2.6 | 0.00 | 0.00 | 0.00 | 69 | 1009.7 |
| 20260506050303 | 67 | 211 | 0.0 | 2.6 | 0.00 | 0.00 | 0.00 | 69 | 1009.8 |
| 20260506045041 | 67 | 242 | 0.0 | 2.6 | 0.00 | 0.00 | 0.00 | 69 | 1009.8 |
| 20260506044939 | 67 | 242 | 0.0 | 2.6 | 0.00 | 0.00 | 0.00 | 69 | 1009.8 |
| 20260506044855 | 67 | 242 | 0.0 | 2.6 | 0.00 | 0.00 | 0.00 | 69 | 1009.8 |
| 20260506044637 | 67 | 242 | 0.0 | 2.6 | 0.00 | 0.00 | 0.00 | 68 | 1009.8 |
| 20260506044537 | 67 | 242 | 0.0 | 2.6 | 0.00 | 0.00 | 0.00 | 68 | 1009.8 |
| 20260506044435 | 67 | 242 | 0.0 | 1.7 | 0.00 | 0.00 | 0.00 | 68 | 1009.8 |
| 20260506044335 | 67 | 242 | 0.0 | 1.7 | 0.00 | 0.00 | 0.00 | 68 | 1009.8 |
| 20260506044235 | 67 | 242 | 0.0 | 1.7 | 0.00 | 0.00 | 0.00 | 68 | 1009.9 |
| 20260506044134 | 67 | 242 | 0.0 | 1.7 | 0.00 | 0.00 | 0.00 | 68 | 1009.8 |
| 20260506044033 | 67 | 242 | 0.0 | 2.6 | 0.00 | 0.00 | 0.00 | 68 | 1009.8 |
| 20260506043931 | 67 | 242 | 0.0 | 2.6 | 0.00 | 0.00 | 0.00 | 68 | 1009.8 |
| 20260506043831 | 67 | 242 | 0.0 | 2.6 | 0.00 | 0.00 | 0.00 | 68 | 1009.7 |
| 20260506043732 | 67 | 242 | 0.0 | 2.6 | 0.00 | 0.00 | 0.00 | 68 | 1009.8 |
| 20260506043630 | 67 | 242 | 0.0 | 2.6 | 0.00 | 0.00 | 0.00 | 68 | 1009.8 |
| 20260506043530 | 67 | 242 | 0.0 | 2.6 | 0.00 | 0.00 | 0.00 | 68 | 1009.8 |
| 20260506043444 | 67 | 242 | 0.0 | 2.6 | 0.00 | 0.00 | 0.00 | 68 | 1009.8 |
| 20260506043230 | 67 | 243 | 0.0 | 2.6 | 0.00 | 0.00 | 0.00 | 68 | 1009.8 |
| 20260506043131 | 67 | 243 | 0.0 | 2.6 | 0.00 | 0.00 | 0.00 | 68 | 1009.8 |
| 20260506043030 | 67 | 243 | 0.0 | 1.7 | 0.00 | 0.00 | 0.00 | 68 | 1009.9 |
| 20260506042927 | 67 | 243 | 0.0 | 1.7 | 0.00 | 0.00 | 0.00 | 68 | 1009.8 |
| 20260506042829 | 67 | 243 | 0.0 | 1.7 | 0.00 | 0.00 | 0.00 | 68 | 1009.8 |
| 20260506042726 | 67 | 243 | 0.0 | 1.7 | 0.00 | 0.00 | 0.00 | 68 | 1009.8 |
| 20260506042624 | 67 | 243 | 0.0 | 1.7 | 0.00 | 0.00 | 0.00 | 68 | 1009.8 |
| 20260506042525 | 67 | 243 | 0.0 | 1.7 | 0.00 | 0.00 | 0.00 | 68 | 1009.8 |
| 20260506042423 | 67 | 244 | 0.0 | 0.0 | 0.00 | 0.00 | 0.00 | 67 | 1009.8 |
| 20260506042338 | 67 | 244 | 0.0 | 0.0 | 0.00 | 0.00 | 0.00 | 67 | 1009.8 |
| 20260506042122 | 67 | 244 | 0.0 | 0.0 | 0.00 | 0.00 | 0.00 | 67 | 1009.8 |
| 20260506042021 | 67 | 248 | 0.0 | 0.9 | 0.00 | 0.00 | 0.00 | 67 | 1009.8 |
| 20260506041920 | 67 | 248 | 0.0 | 2.6 | 0.00 | 0.00 | 0.00 | 67 | 1009.8 |
| 20260506041834 | 67 | 248 | 0.0 | 2.6 | 0.00 | 0.00 | 0.00 | 67 | 1009.8 |
| 20260506041633 | 67 | 250 | 0.0 | 2.6 | 0.00 | 0.00 | 0.00 | 67 | 1009.8 |
| 20260506041429 | 67 | 250 | 0.0 | 2.6 | 0.00 | 0.00 | 0.00 | 67 | 1009.9 |
| 20260506041214 | 67 | 250 | 0.9 | 2.6 | 0.00 | 0.00 | 0.00 | 67 | 1009.8 |
| 20260506041129 | 68 | 250 | 0.9 | 2.6 | 0.00 | 0.00 | 0.00 | 67 | 1009.8 |
| 20260506040912 | 67 | 250 | 0.0 | 2.6 | 0.00 | 0.00 | 0.00 | 67 | 1009.8 |
| 20260506040809 | 67 | 250 | 0.0 | 2.6 | 0.00 | 0.00 | 0.00 | 67 | 1009.8 |
| 20260506040709 | 67 | 252 | 0.0 | 2.6 | 0.00 | 0.00 | 0.00 | 67 | 1009.8 |
| 20260506040624 | 68 | 252 | 0.0 | 2.6 | 0.00 | 0.00 | 0.00 | 67 | 1009.8 |
| 20260506040409 | 68 | 252 | 0.0 | 2.6 | 0.00 | 0.00 | 0.00 | 67 | 1009.7 |
| 20260506040308 | 68 | 252 | 0.0 | 1.7 | 0.00 | 0.00 | 0.00 | 67 | 1009.7 |
| 20260506040224 | 68 | 252 | 0.0 | 1.7 | 0.00 | 0.00 | 0.00 | 66 | 1009.8 |
| 20260506040008 | 68 | 252 | 0.0 | 1.7 | 0.00 | 0.00 | 0.00 | 66 | 1009.7 |
| 20260506035903 | 68 | 252 | 0.0 | 1.7 | 0.00 | 0.00 | 0.00 | 67 | 1009.7 |
| 20260506035804 | 68 | 254 | 0.0 | 1.7 | 0.00 | 0.00 | 0.00 | 67 | 1009.7 |
| 20260506035704 | 68 | 254 | 0.0 | 1.7 | 0.00 | 0.00 | 0.00 | 66 | 1009.7 |
| 20260506035602 | 68 | 254 | 0.0 | 1.7 | 0.00 | 0.00 | 0.00 | 67 | 1009.7 |
| 20260506035459 | 68 | 254 | 0.0 | 1.7 | 0.00 | 0.00 | 0.00 | 66 | 1009.7 |
| 20260506035359 | 68 | 254 | 0.0 | 1.7 | 0.00 | 0.00 | 0.00 | 66 | 1009.7 |
| 20260506035258 | 68 | 259 | 0.0 | 2.6 | 0.00 | 0.00 | 0.00 | 66 | 1009.7 |
| 20260506035158 | 68 | 259 | 0.0 | 2.6 | 0.00 | 0.00 | 0.00 | 66 | 1009.7 |
| 20260506035110 | 68 | 259 | 0.0 | 2.6 | 0.00 | 0.00 | 0.00 | 66 | 1009.7 |
| 20260506034909 | 68 | 259 | 0.0 | 2.6 | 0.00 | 0.00 | 0.00 | 66 | 1009.7 |
| 20260506034652 | 68 | 259 | 0.9 | 2.6 | 0.00 | 0.00 | 0.00 | 66 | 1009.7 |
| 20260506034552 | 68 | 259 | 0.9 | 2.6 | 0.00 | 0.00 | 0.00 | 66 | 1009.7 |
| 20260506034450 | 68 | 259 | 0.9 | 5.2 | 0.00 | 0.00 | 0.00 | 66 | 1009.8 |
| 20260506034403 | 68 | 147 | 0.9 | 5.2 | 0.00 | 0.00 | 0.00 | 66 | 1009.8 |
| 20260506034147 | 68 | 146 | 0.0 | 5.2 | 0.00 | 0.00 | 0.00 | 65 | 1009.7 |
| 20260506034046 | 68 | 148 | 0.0 | 5.2 | 0.00 | 0.00 | 0.00 | 66 | 1009.8 |
| 20260506033946 | 68 | 148 | 0.0 | 5.2 | 0.00 | 0.00 | 0.00 | 65 | 1009.7 |
| 20260506033845 | 68 | 151 | 0.0 | 5.2 | 0.00 | 0.00 | 0.00 | 65 | 1009.7 |
| 20260506033802 | 68 | 151 | 0.0 | 5.2 | 0.00 | 0.00 | 0.00 | 65 | 1009.7 |
| 20260506033602 | 68 | 125 | 0.0 | 5.2 | 0.00 | 0.00 | 0.00 | 65 | 1009.8 |
| 20260506033346 | 68 | 228 | 0.0 | 1.7 | 0.00 | 0.00 | 0.00 | 65 | 1009.8 |
| 20260506033243 | 68 | 228 | 0.0 | 1.7 | 0.00 | 0.00 | 0.00 | 65 | 1009.8 |
| 20260506033141 | 68 | 228 | 0.0 | 1.7 | 0.00 | 0.00 | 0.00 | 65 | 1009.7 |
| 20260506033042 | 68 | 228 | 0.0 | 1.7 | 0.00 | 0.00 | 0.00 | 65 | 1009.7 |
| 20260506032942 | 68 | 228 | 0.0 | 1.7 | 0.00 | 0.00 | 0.00 | 65 | 1009.8 |
| 20260506032857 | 68 | 228 | 0.0 | 1.7 | 0.00 | 0.00 | 0.00 | 65 | 1009.8 |
| 20260506032640 | 68 | 227 | 0.0 | 1.7 | 0.00 | 0.00 | 0.00 | 65 | 1009.9 |
| 20260506032540 | 69 | 227 | 0.0 | 3.5 | 0.00 | 0.00 | 0.00 | 65 | 1009.8 |
| 20260506032437 | 69 | 228 | 0.0 | 3.5 | 0.00 | 0.00 | 0.00 | 65 | 1009.7 |
| 20260506032337 | 69 | 228 | 0.0 | 3.5 | 0.00 | 0.00 | 0.00 | 65 | 1009.8 |
| 20260506032237 | 69 | 228 | 0.0 | 3.5 | 0.00 | 0.00 | 0.00 | 65 | 1009.7 |
| 20260506032221 | 69 | 228 | 0.0 | 3.5 | 0.00 | 0.00 | 0.00 | 65 | 1009.7 |
| 20260506031732 | 69 | 228 | 0.0 | 3.5 | 0.00 | 0.00 | 0.00 | 64 | 1009.7 |
| 20260506031645 | 69 | 228 | 0.0 | 3.5 | 0.00 | 0.00 | 0.00 | 64 | 1009.7 |
| 20260506031429 | 69 | 191 | 0.0 | 2.6 | 0.00 | 0.00 | 0.00 | 64 | 1009.7 |
| 20260506031330 | 69 | 191 | 0.0 | 2.6 | 0.00 | 0.00 | 0.00 | 64 | 1009.7 |
| 20260506031229 | 69 | 191 | 0.0 | 2.6 | 0.00 | 0.00 | 0.00 | 64 | 1009.8 |
| 20260506031142 | 69 | 191 | 0.0 | 2.6 | 0.00 | 0.00 | 0.00 | 64 | 1009.7 |
| 20260506030926 | 69 | 189 | 0.9 | 7.0 | 0.00 | 0.00 | 0.00 | 63 | 1009.7 |
| 20260506030840 | 69 | 219 | 0.9 | 7.0 | 0.00 | 0.00 | 0.00 | 63 | 1009.8 |
| 20260506030621 | 69 | 211 | 0.9 | 7.0 | 0.00 | 0.00 | 0.00 | 63 | 1009.7 |
| 20260506030520 | 69 | 211 | 0.9 | 7.0 | 0.00 | 0.00 | 0.00 | 63 | 1009.7 |
| 20260506030419 | 69 | 184 | 0.9 | 7.0 | 0.00 | 0.00 | 0.00 | 63 | 1009.7 |
| 20260506030317 | 69 | 186 | 0.9 | 7.0 | 0.00 | 0.00 | 0.00 | 63 | 1009.7 |
| 20260506030218 | 69 | 185 | 0.9 | 7.0 | 0.00 | 0.00 | 0.00 | 63 | 1009.7 |
| 20260506030117 | 69 | 183 | 0.9 | 7.0 | 0.00 | 0.00 | 0.00 | 63 | 1009.7 |
| 20260506030031 | 69 | 117 | 0.0 | 6.1 | 0.00 | 0.00 | 0.00 | 63 | 1009.7 |
| 20260506025816 | 69 | 123 | 0.0 | 1.7 | 0.00 | 0.00 | 0.00 | 63 | 1009.7 |
| 20260506025713 | 70 | 134 | 0.0 | 1.7 | 0.00 | 0.00 | 0.00 | 63 | 1009.7 |
| 20260506025612 | 70 | 134 | 0.0 | 1.7 | 0.00 | 0.00 | 0.00 | 63 | 1009.7 |
| 20260506025513 | 70 | 134 | 0.0 | 1.7 | 0.00 | 0.00 | 0.00 | 62 | 1009.6 |
| 20260506025412 | 70 | 134 | 0.9 | 1.7 | 0.00 | 0.00 | 0.00 | 62 | 1009.6 |
| 20260506025325 | 70 | 144 | 0.9 | 3.5 | 0.00 | 0.00 | 0.00 | 62 | 1009.7 |
| 20260506025110 | 70 | 167 | 0.9 | 3.5 | 0.00 | 0.00 | 0.00 | 62 | 1009.6 |
| 20260506025008 | 70 | 167 | 0.9 | 3.5 | 0.00 | 0.00 | 0.00 | 62 | 1009.6 |
| 20260506024909 | 70 | 205 | 0.9 | 3.5 | 0.00 | 0.00 | 0.00 | 62 | 1009.6 |
| 20260506024804 | 70 | 205 | 0.9 | 3.5 | 0.00 | 0.00 | 0.00 | 62 | 1009.6 |
| 20260506024718 | 70 | 205 | 0.9 | 3.5 | 0.00 | 0.00 | 0.00 | 61 | 1009.5 |
| 20260506024505 | 70 | 178 | 0.9 | 3.5 | 0.00 | 0.00 | 0.00 | 61 | 1009.6 |
| 20260506024408 | 70 | 167 | 0.9 | 3.5 | 0.00 | 0.00 | 0.00 | 61 | 1009.5 |
| 20260506024352 | 70 | 174 | 0.9 | 2.6 | 0.00 | 0.00 | 0.00 | 61 | 1009.5 |
| 20260506023902 | 71 | 201 | 0.9 | 6.1 | 0.00 | 0.00 | 0.00 | 60 | 1009.6 |
| 20260506023803 | 71 | 201 | 0.9 | 6.1 | 0.00 | 0.00 | 0.00 | 60 | 1009.6 |
| 20260506023703 | 71 | 200 | 0.9 | 6.1 | 0.00 | 0.00 | 0.00 | 60 | 1009.6 |
| 20260506023603 | 71 | 208 | 0.9 | 6.1 | 0.00 | 0.00 | 0.00 | 60 | 1009.6 |
| 20260506023502 | 71 | 209 | 0.9 | 6.1 | 0.00 | 0.00 | 0.00 | 60 | 1009.5 |
| 20260506023416 | 71 | 209 | 0.9 | 6.1 | 0.00 | 0.00 | 0.00 | 60 | 1009.6 |
| 20260506023213 | 71 | 126 | 0.9 | 6.1 | 0.00 | 0.00 | 0.00 | 59 | 1009.6 |
| 20260506022959 | 71 | 226 | 0.9 | 3.5 | 0.00 | 0.00 | 0.00 | 59 | 1009.5 |
| 20260506022858 | 71 | 172 | 0.9 | 3.5 | 0.00 | 0.00 | 0.00 | 59 | 1009.6 |
| 20260506022801 | 71 | 143 | 0.9 | 3.5 | 0.00 | 0.00 | 0.00 | 59 | 1009.6 |
| 20260506022659 | 71 | 196 | 0.9 | 3.5 | 0.00 | 0.00 | 0.00 | 59 | 1009.5 |
| 20260506022558 | 71 | 178 | 0.9 | 7.0 | 0.00 | 0.00 | 0.00 | 59 | 1009.5 |
| 20260506022458 | 71 | 139 | 0.9 | 7.0 | 0.00 | 0.00 | 0.00 | 59 | 1009.5 |
| 20260506022359 | 71 | 190 | 0.9 | 7.0 | 0.00 | 0.00 | 0.00 | 59 | 1009.4 |
| 20260506022256 | 71 | 190 | 0.9 | 7.0 | 0.00 | 0.00 | 0.00 | 59 | 1009.5 |
| 20260506022155 | 71 | 190 | 0.9 | 7.0 | 0.00 | 0.00 | 0.00 | 58 | 1009.5 |
| 20260506022057 | 71 | 188 | 0.9 | 7.0 | 0.00 | 0.00 | 0.00 | 58 | 1009.4 |
| 20260506021953 | 71 | 188 | 0.9 | 7.0 | 0.00 | 0.00 | 0.00 | 58 | 1009.4 |
| 20260506021853 | 71 | 189 | 0.9 | 7.0 | 0.00 | 0.00 | 0.00 | 58 | 1009.5 |
| 20260506021751 | 71 | 187 | 0.9 | 7.0 | 0.00 | 0.00 | 0.00 | 58 | 1009.4 |
| 20260506021652 | 71 | 174 | 0.9 | 7.0 | 0.00 | 0.00 | 0.00 | 58 | 1009.4 |
| 20260506021553 | 71 | 225 | 0.9 | 4.3 | 0.00 | 0.00 | 0.00 | 57 | 1009.5 |
| 20260506021449 | 71 | 140 | 0.9 | 3.5 | 0.00 | 0.00 | 0.00 | 57 | 1009.5 |
| 20260506021349 | 71 | 134 | 0.9 | 3.5 | 0.00 | 0.00 | 0.00 | 57 | 1009.5 |
| 20260506021247 | 71 | 134 | 0.9 | 3.5 | 0.00 | 0.00 | 0.00 | 56 | 1009.5 |
| 20260506021148 | 72 | 134 | 0.9 | 3.5 | 0.00 | 0.00 | 0.00 | 56 | 1009.4 |
| 20260506021046 | 72 | 134 | 0.9 | 3.5 | 0.00 | 0.00 | 0.00 | 56 | 1009.5 |
| 20260506020947 | 72 | 211 | 0.9 | 3.5 | 0.00 | 0.00 | 0.00 | 56 | 1009.4 |
| 20260506020846 | 72 | 133 | 0.9 | 3.5 | 0.00 | 0.00 | 0.00 | 56 | 1009.4 |
| 20260506020747 | 72 | 182 | 0.9 | 2.6 | 0.00 | 0.00 | 0.00 | 56 | 1009.5 |
| 20260506020646 | 72 | 182 | 0.9 | 2.6 | 0.00 | 0.00 | 0.00 | 56 | 1009.4 |
| 20260506020546 | 72 | 183 | 0.9 | 5.2 | 0.00 | 0.00 | 0.00 | 55 | 1009.4 |
| 20260506020447 | 72 | 175 | 0.9 | 5.2 | 0.00 | 0.00 | 0.00 | 55 | 1009.4 |
| 20260506020357 | 72 | 174 | 1.7 | 5.2 | 0.00 | 0.00 | 0.00 | 55 | 1009.3 |
| 20260506020144 | 72 | 177 | 1.7 | 5.2 | 0.00 | 0.00 | 0.00 | 55 | 1009.4 |
| 20260506020044 | 72 | 189 | 1.7 | 6.1 | 0.00 | 0.00 | 0.00 | 55 | 1009.4 |
| 20260506015942 | 72 | 189 | 1.7 | 6.1 | 0.00 | 0.00 | 0.00 | 55 | 1009.3 |
| 20260506015841 | 72 | 194 | 0.9 | 6.1 | 0.00 | 0.00 | 0.00 | 54 | 1009.4 |
| 20260506015740 | 72 | 205 | 0.9 | 6.1 | 0.00 | 0.00 | 0.00 | 54 | 1009.3 |
| 20260506015638 | 72 | 163 | 0.9 | 6.1 | 0.00 | 0.00 | 0.00 | 54 | 1009.3 |
| 20260506015538 | 72 | 243 | 0.9 | 6.1 | 0.00 | 0.00 | 0.00 | 54 | 1009.3 |
| 20260506015439 | 72 | 191 | 0.9 | 6.1 | 0.00 | 0.00 | 0.00 | 54 | 1009.3 |
| 20260506015337 | 73 | 210 | 0.9 | 6.1 | 0.00 | 0.00 | 0.00 | 53 | 1009.3 |
| 20260506015236 | 73 | 102 | 0.9 | 6.1 | 0.00 | 0.00 | 0.00 | 53 | 1009.3 |
| 20260506015136 | 73 | 114 | 0.9 | 5.2 | 0.00 | 0.00 | 0.00 | 53 | 1009.3 |
| 20260506015051 | 73 | 212 | 0.9 | 5.2 | 0.00 | 0.00 | 0.00 | 52 | 1009.3 |
| 20260506014833 | 73 | 136 | 0.9 | 5.2 | 0.00 | 0.00 | 0.00 | 52 | 1009.2 |
| 20260506014732 | 73 | 136 | 0.9 | 5.2 | 0.00 | 0.00 | 0.00 | 52 | 1009.3 |
| 20260506014632 | 73 | 146 | 0.9 | 5.2 | 0.00 | 0.00 | 0.00 | 52 | 1009.2 |
| 20260506014531 | 73 | 181 | 0.9 | 5.2 | 0.00 | 0.00 | 0.00 | 52 | 1009.2 |
| 20260506014429 | 73 | 186 | 0.9 | 5.2 | 0.00 | 0.00 | 0.00 | 52 | 1009.2 |
| 20260506014330 | 73 | 170 | 0.9 | 5.2 | 0.00 | 0.00 | 0.00 | 51 | 1009.2 |
| 20260506014226 | 73 | 111 | 0.9 | 5.2 | 0.00 | 0.00 | 0.00 | 51 | 1009.2 |
| 20260506014126 | 73 | 196 | 0.9 | 5.2 | 0.00 | 0.00 | 0.00 | 51 | 1009.1 |
| 20260506014027 | 73 | 167 | 0.9 | 5.2 | 0.00 | 0.00 | 0.00 | 51 | 1009.1 |
| 20260506013927 | 73 | 167 | 0.9 | 5.2 | 0.00 | 0.00 | 0.00 | 51 | 1009.1 |
| 20260506013824 | 73 | 165 | 0.9 | 5.2 | 0.00 | 0.00 | 0.00 | 51 | 1009.1 |
| 20260506013725 | 73 | 146 | 0.9 | 5.2 | 0.00 | 0.00 | 0.00 | 50 | 1009.1 |
| 20260506013624 | 73 | 156 | 0.9 | 5.2 | 0.00 | 0.00 | 0.00 | 50 | 1009.2 |
| 20260506013524 | 73 | 157 | 0.9 | 5.2 | 0.00 | 0.00 | 0.00 | 50 | 1009.2 |
| 20260506013426 | 73 | 169 | 0.9 | 5.2 | 0.00 | 0.00 | 0.00 | 50 | 1009.2 |
| 20260506013324 | 73 | 179 | 0.9 | 5.2 | 0.00 | 0.00 | 0.00 | 50 | 1009.1 |
| 20260506013224 | 73 | 161 | 0.9 | 5.2 | 0.00 | 0.00 | 0.00 | 50 | 1009.1 |
| 20260506013127 | 73 | 151 | 0.9 | 2.6 | 0.00 | 0.00 | 0.00 | 50 | 1009.1 |
| 20260506013024 | 73 | 161 | 0.9 | 2.6 | 0.00 | 0.00 | 0.00 | 50 | 1009.1 |
| 20260506012925 | 73 | 171 | 0.9 | 2.6 | 0.00 | 0.00 | 0.00 | 50 | 1009.1 |
| 20260506012824 | 73 | 174 | 0.9 | 6.1 | 0.00 | 0.00 | 0.00 | 50 | 1009.1 |
| 20260506012725 | 74 | 131 | 0.9 | 6.1 | 0.00 | 0.00 | 0.00 | 50 | 1009.1 |
| 20260506012625 | 74 | 166 | 0.9 | 6.1 | 0.00 | 0.00 | 0.00 | 50 | 1009.1 |
| 20260506012520 | 74 | 166 | 0.9 | 6.1 | 0.00 | 0.00 | 0.00 | 49 | 1009.1 |
| 20260506012420 | 74 | 178 | 0.9 | 6.1 | 0.00 | 0.00 | 0.00 | 50 | 1009.0 |
| 20260506012322 | 74 | 178 | 0.9 | 6.1 | 0.00 | 0.00 | 0.00 | 49 | 1009.0 |
| 20260506012222 | 74 | 155 | 0.9 | 6.1 | 0.00 | 0.00 | 0.00 | 50 | 1009.0 |
| 20260506012134 | 74 | 155 | 0.9 | 6.1 | 0.00 | 0.00 | 0.00 | 49 | 1008.9 |
| 20260506011918 | 74 | 144 | 0.9 | 6.1 | 0.00 | 0.00 | 0.00 | 49 | 1008.9 |
| 20260506011816 | 74 | 135 | 0.9 | 2.6 | 0.00 | 0.00 | 0.00 | 49 | 1008.9 |
| 20260506011719 | 74 | 126 | 0.9 | 2.6 | 0.00 | 0.00 | 0.00 | 49 | 1008.8 |
| 20260506011614 | 74 | 118 | 0.9 | 2.6 | 0.00 | 0.00 | 0.00 | 49 | 1008.8 |
| 20260506011513 | 74 | 116 | 0.9 | 2.6 | 0.00 | 0.00 | 0.00 | 49 | 1008.9 |
| 20260506011413 | 74 | 157 | 0.9 | 2.6 | 0.00 | 0.00 | 0.00 | 49 | 1008.8 |
| 20260506011312 | 74 | 157 | 0.9 | 2.6 | 0.00 | 0.00 | 0.00 | 49 | 1008.8 |
| 20260506011215 | 74 | 180 | 0.9 | 2.6 | 0.00 | 0.00 | 0.00 | 49 | 1008.8 |
| 20260506011112 | 74 | 140 | 0.9 | 2.6 | 0.00 | 0.00 | 0.00 | 49 | 1008.9 |
| 20260506011010 | 74 | 178 | 0.9 | 2.6 | 0.00 | 0.00 | 0.00 | 49 | 1008.8 |
| 20260506010909 | 74 | 178 | 0.9 | 3.5 | 0.00 | 0.00 | 0.00 | 49 | 1008.8 |
| 20260506010809 | 74 | 179 | 0.9 | 3.5 | 0.00 | 0.00 | 0.00 | 49 | 1008.8 |
| 20260506010709 | 74 | 185 | 0.9 | 3.5 | 0.00 | 0.00 | 0.00 | 49 | 1008.8 |
| 20260506010609 | 74 | 120 | 0.9 | 3.5 | 0.00 | 0.00 | 0.00 | 49 | 1008.8 |
| 20260506010509 | 74 | 86 | 0.9 | 3.5 | 0.00 | 0.00 | 0.00 | 49 | 1008.8 |
| 20260506010408 | 74 | 182 | 0.9 | 3.5 | 0.00 | 0.00 | 0.00 | 49 | 1008.8 |
| 20260506010323 | 74 | 160 | 0.9 | 3.5 | 0.00 | 0.00 | 0.00 | 49 | 1008.8 |
| 20260506010123 | 74 | 141 | 0.9 | 3.5 | 0.00 | 0.00 | 0.00 | 49 | 1008.7 |
| 20260506005904 | 74 | 171 | 0.9 | 3.5 | 0.00 | 0.00 | 0.00 | 48 | 1008.8 |
| 20260506005807 | 74 | 190 | 0.0 | 3.5 | 0.00 | 0.00 | 0.00 | 48 | 1008.8 |
| 20260506005703 | 74 | 225 | 0.0 | 3.5 | 0.00 | 0.00 | 0.00 | 48 | 1008.8 |
| 20260506005603 | 74 | 146 | 0.0 | 7.0 | 0.00 | 0.00 | 0.00 | 48 | 1008.7 |
| 20260506005503 | 74 | 146 | 0.9 | 7.0 | 0.00 | 0.00 | 0.00 | 48 | 1008.7 |
| 20260506005404 | 75 | 134 | 0.0 | 7.0 | 0.00 | 0.00 | 0.00 | 48 | 1008.7 |
| 20260506005305 | 75 | 134 | 0.9 | 7.0 | 0.00 | 0.00 | 0.00 | 48 | 1008.7 |
| 20260506005202 | 75 | 137 | 0.9 | 7.0 | 0.00 | 0.00 | 0.00 | 48 | 1008.6 |
| 20260506005104 | 75 | 137 | 0.9 | 7.0 | 0.00 | 0.00 | 0.00 | 48 | 1008.7 |
| 20260506005002 | 75 | 132 | 0.9 | 7.0 | 0.00 | 0.00 | 0.00 | 48 | 1008.7 |
| 20260506004902 | 75 | 132 | 0.9 | 7.0 | 0.00 | 0.00 | 0.00 | 48 | 1008.7 |
| 20260506004831 | 75 | 134 | 0.9 | 7.0 | 0.00 | 0.00 | 0.00 | 48 | 1008.6 |
| 20260506004459 | 75 | 150 | 0.9 | 6.1 | 0.00 | 0.00 | 0.00 | 47 | 1008.6 |
| 20260506004357 | 75 | 192 | 0.9 | 6.1 | 0.00 | 0.00 | 0.00 | 47 | 1008.6 |
| 20260506004256 | 75 | 209 | 0.9 | 6.1 | 0.00 | 0.00 | 0.00 | 47 | 1008.5 |
| 20260506004155 | 75 | 209 | 0.9 | 6.1 | 0.00 | 0.00 | 0.00 | 47 | 1008.6 |
| 20260506004126 | 75 | 225 | 0.9 | 10.4 | 0.00 | 0.00 | 0.00 | 47 | 1008.5 |
| 20260506003756 | 75 | 153 | 0.9 | 10.4 | 0.00 | 0.00 | 0.00 | 47 | 1008.5 |
| 20260506003726 | 75 | 188 | 0.9 | 10.4 | 0.00 | 0.00 | 0.00 | 47 | 1008.6 |
| 20260506003353 | 75 | 190 | 0.9 | 10.4 | 0.00 | 0.00 | 0.00 | 46 | 1008.5 |
| 20260506003253 | 75 | 136 | 0.9 | 10.4 | 0.00 | 0.00 | 0.00 | 46 | 1008.5 |
| 20260506003150 | 75 | 189 | 0.9 | 10.4 | 0.00 | 0.00 | 0.00 | 46 | 1008.5 |
| 20260506003051 | 75 | 147 | 0.9 | 6.1 | 0.00 | 0.00 | 0.00 | 46 | 1008.4 |
| 20260506002951 | 75 | 147 | 1.7 | 6.1 | 0.00 | 0.00 | 0.00 | 46 | 1008.4 |
| 20260506002851 | 75 | 162 | 1.7 | 7.0 | 0.00 | 0.00 | 0.00 | 46 | 1008.4 |
| 20260506002752 | 75 | 148 | 0.9 | 7.0 | 0.00 | 0.00 | 0.00 | 46 | 1008.4 |
| 20260506002652 | 75 | 167 | 0.9 | 7.0 | 0.00 | 0.00 | 0.00 | 46 | 1008.4 |
| 20260506002553 | 75 | 185 | 0.9 | 7.0 | 0.00 | 0.00 | 0.00 | 45 | 1008.4 |
| 20260506002507 | 75 | 117 | 0.9 | 7.8 | 0.00 | 0.00 | 0.00 | 45 | 1008.4 |
| 20260506002249 | 76 | 124 | 0.9 | 7.8 | 0.00 | 0.00 | 0.00 | 45 | 1008.4 |
| 20260506002148 | 75 | 146 | 0.9 | 7.8 | 0.00 | 0.00 | 0.00 | 45 | 1008.4 |
| 20260506002049 | 75 | 127 | 0.9 | 7.8 | 0.00 | 0.00 | 0.00 | 45 | 1008.4 |
| 20260506001951 | 76 | 151 | 0.9 | 7.8 | 0.00 | 0.00 | 0.00 | 45 | 1008.4 |
| 20260506001850 | 76 | 213 | 0.9 | 7.8 | 0.00 | 0.00 | 0.00 | 45 | 1008.3 |
| 20260506001748 | 76 | 188 | 0.9 | 8.7 | 0.00 | 0.00 | 0.00 | 45 | 1008.3 |
| 20260506001650 | 76 | 188 | 0.9 | 8.7 | 0.00 | 0.00 | 0.00 | 45 | 1008.3 |
| 20260506001550 | 76 | 188 | 0.9 | 8.7 | 0.00 | 0.00 | 0.00 | 45 | 1008.3 |
| 20260506001449 | 76 | 74 | 0.9 | 8.7 | 0.00 | 0.00 | 0.00 | 44 | 1008.3 |
| 20260506001403 | 76 | 74 | 0.9 | 8.7 | 0.00 | 0.00 | 0.00 | 44 | 1008.2 |
| 20260506001146 | 76 | 69 | 0.9 | 8.7 | 0.00 | 0.00 | 0.00 | 44 | 1008.3 |
| 20260506001045 | 76 | 342 | 0.9 | 8.7 | 0.00 | 0.00 | 0.00 | 44 | 1008.2 |
| 20260506000944 | 76 | 338 | 0.9 | 8.7 | 0.00 | 0.00 | 0.00 | 44 | 1008.2 |
| 20260506000845 | 76 | 115 | 0.9 | 8.7 | 0.00 | 0.00 | 0.00 | 44 | 1008.2 |
| 20260506000759 | 76 | 128 | 0.9 | 5.2 | 0.00 | 0.00 | 0.00 | 43 | 1008.2 |
| 20260506000542 | 76 | 172 | 0.9 | 6.1 | 0.00 | 0.00 | 0.00 | 43 | 1008.2 |
| 20260506000455 | 76 | 144 | 0.9 | 6.1 | 0.00 | 0.00 | 0.00 | 43 | 1008.2 |
| 20260506000240 | 76 | 184 | 0.9 | 6.1 | 0.00 | 0.00 | 0.00 | 42 | 1008.1 |
| 20260506000139 | 76 | 166 | 1.7 | 6.1 | 0.00 | 0.00 | 0.00 | 42 | 1008.2 |
| 20260506000036 | 76 | 166 | 0.9 | 6.1 | 0.00 | 0.00 | 0.00 | 42 | 1008.2 |
| 20260505235937 | 76 | 145 | 0.9 | 6.1 | 0.00 | 0.00 | 0.00 | 42 | 1008.2 |
| 20260505235836 | 76 | 199 | 0.9 | 6.1 | 0.00 | 0.00 | 0.00 | 42 | 1008.2 |
| 20260505235737 | 76 | 201 | 0.9 | 6.1 | 0.00 | 0.00 | 0.00 | 42 | 1008.2 |
| 20260505235632 | 76 | 107 | 0.9 | 6.1 | 0.00 | 0.00 | 0.00 | 42 | 1008.2 |
| 20260505235532 | 76 | 159 | 0.9 | 5.2 | 0.00 | 0.00 | 0.00 | 42 | 1008.2 |
| 20260505235433 | 76 | 147 | 0.9 | 5.2 | 0.00 | 0.00 | 0.00 | 42 | 1008.2 |
| 20260505235334 | 76 | 140 | 0.9 | 5.2 | 0.00 | 0.00 | 0.00 | 41 | 1008.2 |
| 20260505235231 | 76 | 175 | 0.9 | 5.2 | 0.00 | 0.00 | 0.00 | 41 | 1008.2 |
| 20260505235145 | 76 | 175 | 0.9 | 5.2 | 0.00 | 0.00 | 0.00 | 41 | 1008.2 |
| 20260505234928 | 77 | 175 | 0.9 | 5.2 | 0.00 | 0.00 | 0.00 | 41 | 1008.1 |
| 20260505234829 | 77 | 180 | 0.9 | 5.2 | 0.00 | 0.00 | 0.00 | 41 | 1008.1 |
| 20260505234728 | 77 | 132 | 0.9 | 5.2 | 0.00 | 0.00 | 0.00 | 41 | 1008.1 |
| 20260505234642 | 77 | 133 | 0.9 | 5.2 | 0.00 | 0.00 | 0.00 | 41 | 1008.0 |
| 20260505234424 | 77 | 131 | 0.9 | 5.2 | 0.00 | 0.00 | 0.00 | 41 | 1008.1 |
| 20260505234355 | 77 | 123 | 0.9 | 5.2 | 0.00 | 0.00 | 0.00 | 40 | 1008.0 |
| 20260505234021 | 77 | 204 | 0.9 | 5.2 | 0.00 | 0.00 | 0.00 | 40 | 1008.0 |
| 20260505233921 | 77 | 117 | 0.9 | 5.2 | 0.00 | 0.00 | 0.00 | 40 | 1008.0 |
| 20260505233821 | 77 | 115 | 0.9 | 5.2 | 0.00 | 0.00 | 0.00 | 40 | 1008.0 |
| 20260505233718 | 77 | 209 | 0.9 | 4.3 | 0.00 | 0.00 | 0.00 | 40 | 1008.0 |
| 20260505233618 | 77 | 209 | 0.9 | 4.3 | 0.00 | 0.00 | 0.00 | 40 | 1008.0 |
| 20260505233516 | 77 | 209 | 0.9 | 4.3 | 0.00 | 0.00 | 0.00 | 40 | 1008.0 |
| 20260505233416 | 77 | 90 | 0.9 | 3.5 | 0.00 | 0.00 | 0.00 | 40 | 1008.0 |
| 20260505233331 | 77 | 244 | 0.9 | 3.5 | 0.00 | 0.00 | 0.00 | 40 | 1008.0 |
| 20260505233117 | 77 | 153 | 0.9 | 4.3 | 0.00 | 0.00 | 0.00 | 40 | 1008.0 |
| 20260505233044 | 77 | 153 | 0.9 | 4.3 | 0.00 | 0.00 | 0.00 | 40 | 1008.0 |
| 20260505232712 | 77 | 173 | 1.7 | 7.0 | 0.00 | 0.00 | 0.00 | 40 | 1007.9 |
| 20260505232610 | 77 | 115 | 1.7 | 7.0 | 0.00 | 0.00 | 0.00 | 40 | 1007.9 |
| 20260505232510 | 78 | 205 | 1.7 | 7.0 | 0.00 | 0.00 | 0.00 | 40 | 1007.9 |
| 20260505232411 | 78 | 205 | 1.7 | 7.0 | 0.00 | 0.00 | 0.00 | 39 | 1007.9 |
| 20260505232311 | 77 | 207 | 1.7 | 7.0 | 0.00 | 0.00 | 0.00 | 39 | 1007.9 |
| 20260505232210 | 78 | 88 | 1.7 | 7.0 | 0.00 | 0.00 | 0.00 | 39 | 1007.9 |
| 20260505232128 | 78 | 132 | 1.7 | 7.0 | 0.00 | 0.00 | 0.00 | 39 | 1007.8 |
| 20260505231908 | 78 | 215 | 1.7 | 6.1 | 0.00 | 0.00 | 0.00 | 39 | 1007.8 |
| 20260505231824 | 78 | 228 | 1.7 | 4.3 | 0.00 | 0.00 | 0.00 | 39 | 1007.8 |
| 20260505231606 | 78 | 233 | 0.9 | 3.5 | 0.00 | 0.00 | 0.00 | 39 | 1007.8 |
| 20260505231504 | 78 | 234 | 0.9 | 4.3 | 0.00 | 0.00 | 0.00 | 39 | 1007.9 |
| 20260505231404 | 78 | 184 | 0.9 | 4.3 | 0.00 | 0.00 | 0.00 | 39 | 1007.8 |
| 20260505231304 | 78 | 171 | 0.9 | 4.3 | 0.00 | 0.00 | 0.00 | 39 | 1007.8 |
| 20260505231205 | 78 | 165 | 0.9 | 4.3 | 0.00 | 0.00 | 0.00 | 39 | 1007.9 |
| 20260505231104 | 78 | 194 | 0.9 | 4.3 | 0.00 | 0.00 | 0.00 | 38 | 1007.8 |
| 20260505231005 | 78 | 192 | 0.9 | 4.3 | 0.00 | 0.00 | 0.00 | 39 | 1007.8 |
| 20260505230905 | 78 | 197 | 0.9 | 4.3 | 0.00 | 0.00 | 0.00 | 38 | 1007.8 |
| 20260505230802 | 78 | 197 | 0.9 | 7.8 | 0.00 | 0.00 | 0.00 | 38 | 1007.8 |
| 20260505230702 | 78 | 196 | 0.9 | 7.8 | 0.00 | 0.00 | 0.00 | 38 | 1007.8 |
| 20260505230601 | 78 | 192 | 0.9 | 7.8 | 0.00 | 0.00 | 0.00 | 38 | 1007.7 |
| 20260505230501 | 78 | 190 | 0.9 | 7.8 | 0.00 | 0.00 | 0.00 | 38 | 1007.7 |
| 20260505230400 | 78 | 162 | 0.9 | 7.8 | 0.00 | 0.00 | 0.00 | 39 | 1007.7 |
| 20260505230301 | 78 | 210 | 0.9 | 7.8 | 0.00 | 0.00 | 0.00 | 38 | 1007.7 |
| 20260505230216 | 78 | 184 | 0.9 | 7.8 | 0.00 | 0.00 | 0.00 | 38 | 1007.7 |
| 20260505230000 | 78 | 248 | 0.9 | 7.8 | 0.00 | 0.00 | 0.00 | 39 | 1007.6 |
| 20260505225900 | 78 | 209 | 0.9 | 7.8 | 0.00 | 0.00 | 0.00 | 38 | 1007.7 |
| 20260505225759 | 78 | 126 | 0.9 | 3.5 | 0.00 | 0.00 | 0.00 | 38 | 1007.7 |
| 20260505225700 | 78 | 126 | 0.9 | 4.3 | 0.00 | 0.00 | 0.00 | 38 | 1007.6 |
| 20260505225558 | 78 | 135 | 0.9 | 4.3 | 0.00 | 0.00 | 0.00 | 38 | 1007.6 |
| 20260505225459 | 78 | 135 | 0.9 | 4.3 | 0.00 | 0.00 | 0.00 | 39 | 1007.6 |
| 20260505225358 | 78 | 136 | 0.9 | 4.3 | 0.00 | 0.00 | 0.00 | 38 | 1007.5 |
| 20260505225259 | 78 | 135 | 0.9 | 4.3 | 0.00 | 0.00 | 0.00 | 38 | 1007.5 |
| 20260505225158 | 78 | 159 | 0.9 | 4.3 | 0.00 | 0.00 | 0.00 | 38 | 1007.5 |
| 20260505225058 | 78 | 165 | 0.9 | 4.3 | 0.00 | 0.00 | 0.00 | 38 | 1007.5 |
| 20260505225014 | 78 | 234 | 0.9 | 4.3 | 0.00 | 0.00 | 0.00 | 37 | 1007.5 |
| 20260505224759 | 78 | 160 | 0.9 | 4.3 | 0.00 | 0.00 | 0.00 | 37 | 1007.5 |
| 20260505224714 | 78 | 243 | 0.9 | 4.3 | 0.00 | 0.00 | 0.00 | 37 | 1007.4 |
| 20260505224458 | 78 | 183 | 0.9 | 4.3 | 0.00 | 0.00 | 0.00 | 37 | 1007.4 |
| 20260505224357 | 78 | 251 | 0.9 | 7.0 | 0.00 | 0.00 | 0.00 | 37 | 1007.4 |
| 20260505224257 | 78 | 251 | 0.9 | 8.7 | 0.00 | 0.00 | 0.00 | 38 | 1007.4 |
| 20260505224209 | 78 | 166 | 0.9 | 8.7 | 0.00 | 0.00 | 0.00 | 37 | 1007.4 |
| 20260505223952 | 79 | 191 | 0.9 | 8.7 | 0.00 | 0.00 | 0.00 | 37 | 1007.4 |
| 20260505223853 | 79 | 191 | 0.9 | 8.7 | 0.00 | 0.00 | 0.00 | 37 | 1007.4 |
| 20260505223753 | 79 | 88 | 0.9 | 8.7 | 0.00 | 0.00 | 0.00 | 37 | 1007.4 |
| 20260505223654 | 79 | 135 | 0.9 | 8.7 | 0.00 | 0.00 | 0.00 | 37 | 1007.5 |
| 20260505223554 | 79 | 135 | 0.9 | 8.7 | 0.00 | 0.00 | 0.00 | 37 | 1007.4 |
| 20260505223452 | 79 | 135 | 0.9 | 8.7 | 0.00 | 0.00 | 0.00 | 37 | 1007.3 |
| 20260505223353 | 79 | 122 | 0.9 | 8.7 | 0.00 | 0.00 | 0.00 | 37 | 1007.4 |
| 20260505223252 | 79 | 169 | 0.9 | 4.3 | 0.00 | 0.00 | 0.00 | 37 | 1007.4 |
| 20260505223152 | 79 | 161 | 0.9 | 3.5 | 0.00 | 0.00 | 0.00 | 37 | 1007.4 |
| 20260505223108 | 79 | 161 | 0.9 | 4.3 | 0.00 | 0.00 | 0.00 | 37 | 1007.4 |
| 20260505222853 | 79 | 190 | 0.9 | 4.3 | 0.00 | 0.00 | 0.00 | 36 | 1007.4 |
| 20260505222752 | 79 | 197 | 0.9 | 4.3 | 0.00 | 0.00 | 0.00 | 37 | 1007.4 |
| 20260505222652 | 79 | 197 | 0.9 | 4.3 | 0.00 | 0.00 | 0.00 | 37 | 1007.4 |
| 20260505222552 | 79 | 137 | 0.9 | 4.3 | 0.00 | 0.00 | 0.00 | 36 | 1007.4 |
| 20260505222450 | 79 | 172 | 1.7 | 4.3 | 0.00 | 0.00 | 0.00 | 36 | 1007.4 |
| 20260505222348 | 79 | 133 | 1.7 | 4.3 | 0.00 | 0.00 | 0.00 | 36 | 1007.4 |
| 20260505222249 | 79 | 211 | 1.7 | 4.3 | 0.00 | 0.00 | 0.00 | 36 | 1007.4 |
| 20260505222150 | 79 | 107 | 1.7 | 4.3 | 0.00 | 0.00 | 0.00 | 36 | 1007.4 |
| 20260505222048 | 79 | 221 | 1.7 | 4.3 | 0.00 | 0.00 | 0.00 | 36 | 1007.4 |
| 20260505221949 | 79 | 208 | 1.7 | 4.3 | 0.00 | 0.00 | 0.00 | 35 | 1007.4 |
| 20260505221847 | 79 | 208 | 1.7 | 7.8 | 0.00 | 0.00 | 0.00 | 35 | 1007.4 |
| 20260505221749 | 79 | 164 | 2.6 | 7.8 | 0.00 | 0.00 | 0.00 | 36 | 1007.4 |
| 20260505221705 | 79 | 210 | 1.7 | 7.8 | 0.00 | 0.00 | 0.00 | 36 | 1007.4 |
| 20260505221448 | 79 | 205 | 2.6 | 7.8 | 0.00 | 0.00 | 0.00 | 35 | 1007.4 |
| 20260505221404 | 79 | 232 | 1.7 | 8.7 | 0.00 | 0.00 | 0.00 | 35 | 1007.4 |
| 20260505221145 | 79 | 123 | 1.7 | 8.7 | 0.00 | 0.00 | 0.00 | 35 | 1007.5 |
| 20260505221047 | 79 | 146 | 1.7 | 8.7 | 0.00 | 0.00 | 0.00 | 35 | 1007.4 |
| 20260505220946 | 80 | 217 | 1.7 | 8.7 | 0.00 | 0.00 | 0.00 | 36 | 1007.4 |
| 20260505220847 | 80 | 139 | 1.7 | 8.7 | 0.00 | 0.00 | 0.00 | 35 | 1007.3 |
| 20260505220746 | 80 | 138 | 1.7 | 8.7 | 0.00 | 0.00 | 0.00 | 35 | 1007.4 |
| 20260505220645 | 80 | 100 | 1.7 | 8.7 | 0.00 | 0.00 | 0.00 | 35 | 1007.4 |
| 20260505220544 | 80 | 225 | 1.7 | 8.7 | 0.00 | 0.00 | 0.00 | 34 | 1007.4 |
| 20260505220445 | 80 | 225 | 1.7 | 8.7 | 0.00 | 0.00 | 0.00 | 35 | 1007.3 |
| 20260505220430 | 80 | 219 | 1.7 | 6.1 | 0.00 | 0.00 | 0.00 | 35 | 1007.5 |
| 20260505215959 | 80 | 219 | 1.7 | 7.0 | 0.00 | 0.00 | 0.00 | 34 | 1007.4 |
| 20260505215742 | 80 | 202 | 1.7 | 7.0 | 0.00 | 0.00 | 0.00 | 35 | 1007.3 |
| 20260505215638 | 80 | 157 | 1.7 | 7.0 | 0.00 | 0.00 | 0.00 | 35 | 1007.3 |
| 20260505215538 | 80 | 156 | 1.7 | 7.0 | 0.00 | 0.00 | 0.00 | 35 | 1007.4 |
| 20260505215439 | 80 | 108 | 1.7 | 7.0 | 0.00 | 0.00 | 0.00 | 35 | 1007.3 |
| 20260505215337 | 80 | 121 | 1.7 | 7.0 | 0.00 | 0.00 | 0.00 | 35 | 1007.3 |
| 20260505215239 | 80 | 182 | 1.7 | 8.7 | 0.00 | 0.00 | 0.00 | 35 | 1007.3 |
| 20260505215155 | 80 | 172 | 1.7 | 8.7 | 0.00 | 0.00 | 0.00 | 36 | 1007.3 |
| 20260505214938 | 80 | 239 | 2.6 | 8.7 | 0.00 | 0.00 | 0.00 | 35 | 1007.3 |
| 20260505214839 | 80 | 186 | 2.6 | 9.6 | 0.00 | 0.00 | 0.00 | 35 | 1007.3 |
| 20260505214738 | 80 | 189 | 2.6 | 9.6 | 0.00 | 0.00 | 0.00 | 35 | 1007.3 |
| 20260505214637 | 80 | 239 | 2.6 | 9.6 | 0.00 | 0.00 | 0.00 | 35 | 1007.3 |
| 20260505214540 | 80 | 302 | 2.6 | 9.6 | 0.00 | 0.00 | 0.00 | 35 | 1007.3 |
| 20260505214439 | 80 | 234 | 2.6 | 9.6 | 0.00 | 0.00 | 0.00 | 35 | 1007.3 |
| 20260505214339 | 80 | 233 | 2.6 | 9.6 | 0.00 | 0.00 | 0.00 | 35 | 1007.2 |
| 20260505214238 | 80 | 236 | 2.6 | 9.6 | 0.00 | 0.00 | 0.00 | 35 | 1007.3 |
| 20260505214139 | 80 | 247 | 2.6 | 9.6 | 0.00 | 0.00 | 0.00 | 35 | 1007.4 |
| 20260505214038 | 80 | 248 | 2.6 | 9.6 | 0.00 | 0.00 | 0.00 | 35 | 1007.2 |
| 20260505213938 | 80 | 227 | 2.6 | 9.6 | 0.00 | 0.00 | 0.00 | 35 | 1007.4 |
| 20260505213838 | 80 | 224 | 1.7 | 7.8 | 0.00 | 0.00 | 0.00 | 34 | 1007.0 |
| 20260505213738 | 80 | 223 | 1.7 | 7.0 | 0.00 | 0.00 | 0.00 | 36 | 1007.0 |
| 20260505213639 | 80 | 245 | 1.7 | 6.1 | 0.00 | 0.00 | 0.00 | 36 | 1007.2 |
| 20260505213538 | 80 | 250 | 1.7 | 6.1 | 0.00 | 0.00 | 0.00 | 35 | 1007.0 |
| 20260505213439 | 80 | 240 | 0.9 | 6.1 | 0.00 | 0.00 | 0.00 | 36 | 1007.0 |
| 20260505213338 | 80 | 244 | 0.9 | 6.1 | 0.00 | 0.00 | 0.00 | 36 | 1007.0 |
| 20260505213239 | 80 | 188 | 0.9 | 6.1 | 0.00 | 0.00 | 0.00 | 36 | 1007.0 |
| 20260505213153 | 80 | 191 | 0.9 | 2.6 | 0.00 | 0.00 | 0.00 | 35 | 1007.2 |
| 20260505212939 | 80 | 148 | 0.9 | 2.6 | 0.00 | 0.00 | 0.00 | 35 | 1007.0 |
| 20260505212838 | 80 | 195 | 0.9 | 2.6 | 0.00 | 0.00 | 0.00 | 36 | 1007.0 |
| 20260505212737 | 80 | 181 | 0.9 | 2.6 | 0.00 | 0.00 | 0.00 | 37 | 1007.0 |
| 20260505212638 | 80 | 182 | 0.9 | 2.6 | 0.00 | 0.00 | 0.00 | 36 | 1007.0 |
| 20260505212538 | 80 | 183 | 0.9 | 6.1 | 0.00 | 0.00 | 0.00 | 37 | 1007.0 |
| 20260505212454 | 80 | 183 | 0.9 | 6.1 | 0.00 | 0.00 | 0.00 | 36 | 1006.9 |
| 20260505212238 | 80 | 205 | 1.7 | 6.1 | 0.00 | 0.00 | 0.00 | 36 | 1006.9 |
| 20260505212138 | 80 | 185 | 1.7 | 9.6 | 0.00 | 0.00 | 0.00 | 36 | 1006.9 |
| 20260505212039 | 80 | 185 | 1.7 | 9.6 | 0.00 | 0.00 | 0.00 | 35 | 1006.8 |
| 20260505211938 | 80 | 185 | 1.7 | 9.6 | 0.00 | 0.00 | 0.00 | 34 | 1006.8 |
| 20260505211837 | 80 | 217 | 2.6 | 9.6 | 0.00 | 0.00 | 0.00 | 34 | 1006.8 |
| 20260505211738 | 80 | 238 | 2.6 | 9.6 | 0.00 | 0.00 | 0.00 | 34 | 1006.9 |
| 20260505211638 | 80 | 238 | 2.6 | 9.6 | 0.00 | 0.00 | 0.00 | 33 | 1006.8 |
| 20260505211555 | 80 | 243 | 1.7 | 9.6 | 0.00 | 0.00 | 0.00 | 33 | 1006.8 |
| 20260505211339 | 81 | 219 | 1.7 | 9.6 | 0.00 | 0.00 | 0.00 | 33 | 1006.7 |
| 20260505211237 | 81 | 210 | 1.7 | 9.6 | 0.00 | 0.00 | 0.00 | 32 | 1006.6 |
| 20260505211139 | 81 | 221 | 1.7 | 8.7 | 0.00 | 0.00 | 0.00 | 34 | 1006.7 |
| 20260505211039 | 81 | 246 | 1.7 | 5.2 | 0.00 | 0.00 | 0.00 | 34 | 1006.9 |
| 20260505210938 | 81 | 147 | 1.7 | 5.2 | 0.00 | 0.00 | 0.00 | 35 | 1006.9 |
| 20260505210838 | 81 | 222 | 1.7 | 5.2 | 0.00 | 0.00 | 0.00 | 36 | 1006.9 |
| 20260505210756 | 81 | 222 | 1.7 | 7.8 | 0.00 | 0.00 | 0.00 | 35 | 1006.8 |
| 20260505210539 | 82 | 202 | 1.7 | 7.8 | 0.00 | 0.00 | 0.00 | 35 | 1006.8 |
| 20260505210438 | 82 | 202 | 2.6 | 7.8 | 0.00 | 0.00 | 0.00 | 35 | 1006.8 |
| 20260505210340 | 82 | 202 | 2.6 | 7.8 | 0.00 | 0.00 | 0.00 | 36 | 1006.7 |
| 20260505210240 | 82 | 192 | 2.6 | 7.8 | 0.00 | 0.00 | 0.00 | 35 | 1006.8 |
| 20260505210139 | 82 | 221 | 2.6 | 7.8 | 0.00 | 0.00 | 0.00 | 36 | 1006.7 |
| 20260505210039 | 82 | 219 | 2.6 | 7.8 | 0.00 | 0.00 | 0.00 | 35 | 1006.8 |
| 20260505205938 | 82 | 218 | 2.6 | 7.8 | 0.00 | 0.00 | 0.00 | 35 | 1006.8 |
| 20260505205838 | 82 | 203 | 2.6 | 12.2 | 0.00 | 0.00 | 0.00 | 35 | 1006.8 |
| 20260505205737 | 82 | 229 | 2.6 | 12.2 | 0.00 | 0.00 | 0.00 | 35 | 1006.7 |
| 20260505205654 | 82 | 232 | 2.6 | 12.2 | 0.00 | 0.00 | 0.00 | 36 | 1006.8 |
| 20260505205439 | 82 | 228 | 2.6 | 12.2 | 0.00 | 0.00 | 0.00 | 36 | 1006.7 |
| 20260505205339 | 82 | 247 | 2.6 | 12.2 | 0.00 | 0.00 | 0.00 | 35 | 1006.7 |
| 20260505205239 | 82 | 200 | 2.6 | 12.2 | 0.00 | 0.00 | 0.00 | 35 | 1006.6 |
| 20260505205137 | 82 | 134 | 2.6 | 12.2 | 0.00 | 0.00 | 0.00 | 34 | 1006.7 |
| 20260505205038 | 82 | 153 | 2.6 | 12.2 | 0.00 | 0.00 | 0.00 | 36 | 1006.8 |
| 20260505204939 | 82 | 221 | 2.6 | 12.2 | 0.00 | 0.00 | 0.00 | 36 | 1006.7 |
| 20260505204840 | 82 | 118 | 2.6 | 11.3 | 0.00 | 0.00 | 0.00 | 35 | 1006.7 |
| 20260505204754 | 82 | 187 | 2.6 | 11.3 | 0.00 | 0.00 | 0.00 | 35 | 1006.8 |
| 20260505204538 | 82 | 199 | 2.6 | 11.3 | 0.00 | 0.00 | 0.00 | 35 | 1006.9 |
| 20260505204510 | 82 | 163 | 2.6 | 11.3 | 0.00 | 0.00 | 0.00 | 35 | 1006.9 |
| 20260505204139 | 82 | 238 | 2.6 | 11.3 | 0.00 | 0.00 | 0.00 | 36 | 1006.8 |
| 20260505204040 | 82 | 234 | 2.6 | 11.3 | 0.00 | 0.00 | 0.00 | 36 | 1006.8 |
| 20260505203937 | 82 | 233 | 2.6 | 11.3 | 0.00 | 0.00 | 0.00 | 35 | 1006.9 |
| 20260505203839 | 82 | 200 | 2.6 | 11.3 | 0.00 | 0.00 | 0.00 | 36 | 1006.8 |
| 20260505203742 | 82 | 132 | 2.6 | 11.3 | 0.00 | 0.00 | 0.00 | 34 | 1006.8 |
| 20260505203727 | 82 | 246 | 2.6 | 11.3 | 0.00 | 0.00 | 0.00 | 35 | 1006.9 |
| 20260505203239 | 82 | 236 | 2.6 | 9.6 | 0.00 | 0.00 | 0.00 | 35 | 1006.9 |
| 20260505203138 | 82 | 236 | 2.6 | 9.6 | 0.00 | 0.00 | 0.00 | 35 | 1006.8 |
| 20260505203038 | 82 | 147 | 2.6 | 9.6 | 0.00 | 0.00 | 0.00 | 35 | 1006.7 |
| 20260505202939 | 82 | 196 | 1.7 | 9.6 | 0.00 | 0.00 | 0.00 | 35 | 1006.8 |
| 20260505202839 | 82 | 197 | 1.7 | 9.6 | 0.00 | 0.00 | 0.00 | 35 | 1006.8 |
| 20260505202737 | 82 | 150 | 1.7 | 9.6 | 0.00 | 0.00 | 0.00 | 34 | 1006.9 |
| 20260505202639 | 82 | 117 | 1.7 | 9.6 | 0.00 | 0.00 | 0.00 | 34 | 1006.8 |
| 20260505202539 | 82 | 124 | 1.7 | 9.6 | 0.00 | 0.00 | 0.00 | 34 | 1006.9 |
| 20260505202440 | 82 | 123 | 1.7 | 9.6 | 0.00 | 0.00 | 0.00 | 35 | 1006.8 |
| 20260505202337 | 82 | 213 | 1.7 | 9.6 | 0.00 | 0.00 | 0.00 | 35 | 1007.0 |
| 20260505202239 | 82 | 241 | 1.7 | 9.6 | 0.00 | 0.00 | 0.00 | 36 | 1006.9 |
| 20260505202137 | 82 | 138 | 1.7 | 9.6 | 0.00 | 0.00 | 0.00 | 35 | 1006.8 |
| 20260505202038 | 82 | 205 | 1.7 | 6.1 | 0.00 | 0.00 | 0.00 | 35 | 1007.0 |
| 20260505201938 | 82 | 125 | 1.7 | 6.1 | 0.00 | 0.00 | 0.00 | 36 | 1006.9 |
| 20260505201838 | 82 | 193 | 1.7 | 8.7 | 0.00 | 0.00 | 0.00 | 37 | 1006.9 |
| 20260505201737 | 82 | 187 | 1.7 | 8.7 | 0.00 | 0.00 | 0.00 | 37 | 1006.8 |
| 20260505201638 | 82 | 121 | 1.7 | 8.7 | 0.00 | 0.00 | 0.00 | 36 | 1006.9 |
| 20260505201539 | 82 | 221 | 2.6 | 12.2 | 0.00 | 0.00 | 0.00 | 37 | 1006.9 |
| 20260505201437 | 82 | 147 | 2.6 | 12.2 | 0.00 | 0.00 | 0.00 | 39 | 1007.0 |
| 20260505201339 | 82 | 182 | 2.6 | 12.2 | 0.00 | 0.00 | 0.00 | 37 | 1007.0 |
| 20260505201239 | 82 | 181 | 2.6 | 12.2 | 0.00 | 0.00 | 0.00 | 37 | 1007.0 |
| 20260505201155 | 82 | 202 | 2.6 | 12.2 | 0.00 | 0.00 | 0.00 | 37 | 1006.9 |
| 20260505200938 | 82 | 126 | 2.6 | 12.2 | 0.00 | 0.00 | 0.00 | 37 | 1006.9 |
| 20260505200839 | 82 | 137 | 2.6 | 12.2 | 0.00 | 0.00 | 0.00 | 37 | 1007.0 |
| 20260505200737 | 82 | 121 | 2.6 | 12.2 | 0.00 | 0.00 | 0.00 | 38 | 1007.0 |
| 20260505200639 | 82 | 148 | 2.6 | 12.2 | 0.00 | 0.00 | 0.00 | 37 | 1007.0 |
| 20260505200538 | 82 | 128 | 2.6 | 7.8 | 0.00 | 0.00 | 0.00 | 38 | 1007.0 |
| 20260505200439 | 82 | 169 | 2.6 | 7.8 | 0.00 | 0.00 | 0.00 | 38 | 1007.0 |
| 20260505200338 | 82 | 242 | 1.7 | 7.8 | 0.00 | 0.00 | 0.00 | 36 | 1007.0 |
| 20260505200237 | 82 | 234 | 1.7 | 7.8 | 0.00 | 0.00 | 0.00 | 37 | 1007.2 |
| 20260505200155 | 82 | 202 | 1.7 | 6.1 | 0.00 | 0.00 | 0.00 | 37 | 1007.2 |
| 20260505195956 | 82 | 272 | 2.6 | 6.1 | 0.00 | 0.00 | 0.00 | 37 | 1007.2 |
| 20260505195737 | 82 | 225 | 2.6 | 13.0 | 0.00 | 0.00 | 0.00 | 38 | 1007.0 |
| 20260505195640 | 82 | 229 | 1.7 | 13.0 | 0.00 | 0.00 | 0.00 | 39 | 1007.2 |
| 20260505195538 | 82 | 191 | 2.6 | 13.0 | 0.00 | 0.00 | 0.00 | 38 | 1007.2 |
| 20260505195439 | 82 | 220 | 2.6 | 13.0 | 0.00 | 0.00 | 0.00 | 38 | 1007.2 |
| 20260505195338 | 82 | 233 | 2.6 | 13.0 | 0.00 | 0.00 | 0.00 | 37 | 1007.2 |
| 20260505195240 | 82 | 215 | 2.6 | 13.0 | 0.00 | 0.00 | 0.00 | 37 | 1007.3 |
| 20260505195139 | 82 | 198 | 2.6 | 13.0 | 0.00 | 0.00 | 0.00 | 37 | 1007.2 |
| 20260505195040 | 82 | 229 | 2.6 | 13.0 | 0.00 | 0.00 | 0.00 | 36 | 1007.2 |
| 20260505194953 | 82 | 119 | 1.7 | 13.0 | 0.00 | 0.00 | 0.00 | 37 | 1007.2 |
| 20260505194739 | 83 | 228 | 1.7 | 9.6 | 0.00 | 0.00 | 0.00 | 38 | 1007.2 |
| 20260505194638 | 83 | 225 | 1.7 | 9.6 | 0.00 | 0.00 | 0.00 | 37 | 1007.2 |
| 20260505194537 | 83 | 232 | 1.7 | 9.6 | 0.00 | 0.00 | 0.00 | 37 | 1007.0 |
| 20260505194438 | 83 | 173 | 1.7 | 8.7 | 0.00 | 0.00 | 0.00 | 37 | 1007.2 |
| 20260505194338 | 83 | 115 | 1.7 | 8.7 | 0.00 | 0.00 | 0.00 | 37 | 1007.2 |
| 20260505194237 | 83 | 205 | 1.7 | 7.8 | 0.00 | 0.00 | 0.00 | 38 | 1007.3 |
| 20260505194137 | 82 | 140 | 1.7 | 7.8 | 0.00 | 0.00 | 0.00 | 39 | 1007.3 |
| 20260505194038 | 82 | 105 | 1.7 | 7.8 | 0.00 | 0.00 | 0.00 | 38 | 1007.3 |
| 20260505193938 | 82 | 238 | 1.7 | 7.8 | 0.00 | 0.00 | 0.00 | 39 | 1007.3 |
| 20260505193839 | 82 | 199 | 1.7 | 7.8 | 0.00 | 0.00 | 0.00 | 39 | 1007.3 |
| 20260505193754 | 82 | 165 | 1.7 | 7.8 | 0.00 | 0.00 | 0.00 | 40 | 1007.2 |
| 20260505193538 | 82 | 177 | 1.7 | 7.8 | 0.00 | 0.00 | 0.00 | 38 | 1007.2 |
| 20260505193437 | 82 | 211 | 1.7 | 7.8 | 0.00 | 0.00 | 0.00 | 37 | 1007.2 |
| 20260505193340 | 82 | 214 | 1.7 | 7.8 | 0.00 | 0.00 | 0.00 | 37 | 1007.2 |
| 20260505193239 | 82 | 225 | 1.7 | 6.1 | 0.00 | 0.00 | 0.00 | 37 | 1007.3 |
| 20260505193138 | 82 | 216 | 1.7 | 8.7 | 0.00 | 0.00 | 0.00 | 37 | 1007.4 |
| 20260505193035 | 82 | 194 | 1.7 | 8.7 | 0.00 | 0.00 | 0.00 | 37 | 1007.4 |
| 20260505192933 | 82 | 229 | 2.6 | 8.7 | 0.00 | 0.00 | 0.00 | 37 | 1007.2 |
| 20260505192835 | 82 | 213 | 2.6 | 8.7 | 0.00 | 0.00 | 0.00 | 39 | 1007.4 |
| 20260505192733 | 82 | 137 | 2.6 | 8.7 | 0.00 | 0.00 | 0.00 | 39 | 1007.3 |
| 20260505192635 | 82 | 254 | 2.6 | 8.7 | 0.00 | 0.00 | 0.00 | 38 | 1007.5 |
| 20260505192536 | 82 | 178 | 2.6 | 8.7 | 0.00 | 0.00 | 0.00 | 37 | 1007.4 |
| 20260505192434 | 82 | 238 | 2.6 | 8.7 | 0.00 | 0.00 | 0.00 | 37 | 1007.4 |
| 20260505192335 | 82 | 157 | 2.6 | 8.7 | 0.00 | 0.00 | 0.00 | 37 | 1007.3 |
| 20260505192251 | 82 | 221 | 2.6 | 8.7 | 0.00 | 0.00 | 0.00 | 37 | 1007.4 |
| 20260505192036 | 82 | 247 | 2.6 | 8.7 | 0.00 | 0.00 | 0.00 | 37 | 1007.5 |
| 20260505191952 | 82 | 200 | 2.6 | 9.6 | 0.00 | 0.00 | 0.00 | 38 | 1007.3 |
| 20260505191735 | 82 | 240 | 2.6 | 9.6 | 0.00 | 0.00 | 0.00 | 37 | 1007.5 |
| 20260505191633 | 82 | 278 | 2.6 | 9.6 | 0.00 | 0.00 | 0.00 | 38 | 1007.5 |
| 20260505191535 | 82 | 234 | 2.6 | 9.6 | 0.00 | 0.00 | 0.00 | 39 | 1007.5 |
| 20260505191451 | 82 | 149 | 2.6 | 9.6 | 0.00 | 0.00 | 0.00 | 39 | 1007.5 |
| 20260505191234 | 82 | 205 | 3.5 | 10.4 | 0.00 | 0.00 | 0.00 | 37 | 1007.6 |
| 20260505191133 | 82 | 159 | 3.5 | 10.4 | 0.00 | 0.00 | 0.00 | 38 | 1007.5 |
| 20260505191034 | 82 | 218 | 3.5 | 10.4 | 0.00 | 0.00 | 0.00 | 36 | 1007.5 |
| 20260505190933 | 82 | 240 | 3.5 | 10.4 | 0.00 | 0.00 | 0.00 | 36 | 1007.6 |
| 20260505190833 | 82 | 233 | 3.5 | 10.4 | 0.00 | 0.00 | 0.00 | 35 | 1007.7 |
| 20260505190731 | 82 | 219 | 2.6 | 10.4 | 0.00 | 0.00 | 0.00 | 36 | 1007.8 |
| 20260505190629 | 82 | 213 | 2.6 | 10.4 | 0.00 | 0.00 | 0.00 | 35 | 1007.8 |
| 20260505190531 | 82 | 212 | 2.6 | 10.4 | 0.00 | 0.00 | 0.00 | 36 | 1007.8 |
| 20260505190431 | 82 | 222 | 3.5 | 10.4 | 0.00 | 0.00 | 0.00 | 35 | 1007.8 |
| 20260505190329 | 83 | 232 | 2.6 | 9.6 | 0.00 | 0.00 | 0.00 | 36 | 1007.7 |
| 20260505190232 | 83 | 225 | 2.6 | 7.8 | 0.00 | 0.00 | 0.00 | 38 | 1007.7 |
| 20260505190129 | 83 | 213 | 2.6 | 7.8 | 0.00 | 0.00 | 0.00 | 39 | 1007.7 |
| 20260505190030 | 82 | 130 | 2.6 | 7.8 | 0.00 | 0.00 | 0.00 | 38 | 1007.7 |
| 20260505185931 | 82 | 143 | 2.6 | 7.8 | 0.00 | 0.00 | 0.00 | 37 | 1007.7 |
| 20260505185844 | 83 | 196 | 2.6 | 7.8 | 0.00 | 0.00 | 0.00 | 38 | 1007.7 |
| 20260505185630 | 82 | 138 | 2.6 | 9.6 | 0.00 | 0.00 | 0.00 | 37 | 1007.7 |
| 20260505185548 | 82 | 176 | 2.6 | 9.6 | 0.00 | 0.00 | 0.00 | 37 | 1007.8 |
| 20260505185330 | 82 | 166 | 2.6 | 9.6 | 0.00 | 0.00 | 0.00 | 37 | 1007.7 |
| 20260505185230 | 83 | 213 | 1.7 | 9.6 | 0.00 | 0.00 | 0.00 | 38 | 1007.8 |
| 20260505185131 | 83 | 227 | 1.7 | 9.6 | 0.00 | 0.00 | 0.00 | 37 | 1007.8 |
| 20260505185033 | 83 | 216 | 1.7 | 9.6 | 0.00 | 0.00 | 0.00 | 38 | 1007.7 |
| 20260505185017 | 83 | 227 | 1.7 | 9.6 | 0.00 | 0.00 | 0.00 | 38 | 1007.9 |
| 20260505184522 | 83 | 214 | 1.7 | 13.0 | 0.00 | 0.00 | 0.00 | 39 | 1007.8 |
| 20260505184423 | 83 | 134 | 1.7 | 13.0 | 0.00 | 0.00 | 0.00 | 40 | 1007.8 |
| 20260505184322 | 83 | 201 | 1.7 | 13.0 | 0.00 | 0.00 | 0.00 | 40 | 1007.8 |
| 20260505184222 | 83 | 209 | 1.7 | 13.0 | 0.00 | 0.00 | 0.00 | 39 | 1007.9 |
| 20260505184122 | 83 | 209 | 1.7 | 13.0 | 0.00 | 0.00 | 0.00 | 40 | 1007.9 |
| 20260505184031 | 83 | 227 | 1.7 | 13.0 | 0.00 | 0.00 | 0.00 | 40 | 1007.7 |
| 20260505184014 | 82 | 217 | 1.7 | 13.0 | 0.00 | 0.00 | 0.00 | 39 | 1007.9 |
| 20260505183519 | 82 | 232 | 2.6 | 6.1 | 0.00 | 0.00 | 0.00 | 39 | 1008.0 |
| 20260505183420 | 82 | 232 | 2.6 | 7.0 | 0.00 | 0.00 | 0.00 | 39 | 1008.1 |
| 20260505183320 | 82 | 227 | 2.6 | 7.0 | 0.00 | 0.00 | 0.00 | 40 | 1008.0 |
| 20260505183238 | 82 | 186 | 2.6 | 7.0 | 0.00 | 0.00 | 0.00 | 40 | 1008.2 |
| 20260505183020 | 82 | 232 | 2.6 | 7.0 | 0.00 | 0.00 | 0.00 | 40 | 1008.1 |
| 20260505182917 | 82 | 140 | 1.7 | 7.0 | 0.00 | 0.00 | 0.00 | 40 | 1008.1 |
| 20260505182816 | 82 | 119 | 1.7 | 7.0 | 0.00 | 0.00 | 0.00 | 39 | 1008.1 |
| 20260505182717 | 82 | 224 | 1.7 | 7.0 | 0.00 | 0.00 | 0.00 | 40 | 1008.1 |
| 20260505182617 | 82 | 236 | 1.7 | 7.0 | 0.00 | 0.00 | 0.00 | 40 | 1008.1 |
| 20260505182518 | 82 | 248 | 1.7 | 7.0 | 0.00 | 0.00 | 0.00 | 39 | 1008.2 |
| 20260505182417 | 82 | 133 | 2.6 | 10.4 | 0.00 | 0.00 | 0.00 | 41 | 1008.2 |
| 20260505182315 | 82 | 199 | 1.7 | 10.4 | 0.00 | 0.00 | 0.00 | 41 | 1008.2 |
| 20260505182218 | 82 | 130 | 1.7 | 10.4 | 0.00 | 0.00 | 0.00 | 42 | 1008.1 |
| 20260505182116 | 82 | 112 | 2.6 | 10.4 | 0.00 | 0.00 | 0.00 | 41 | 1008.1 |
| 20260505182015 | 82 | 131 | 2.6 | 10.4 | 0.00 | 0.00 | 0.00 | 40 | 1008.1 |
| 20260505181917 | 82 | 140 | 2.6 | 10.4 | 0.00 | 0.00 | 0.00 | 40 | 1008.2 |
| 20260505181818 | 82 | 109 | 2.6 | 10.4 | 0.00 | 0.00 | 0.00 | 39 | 1008.2 |
| 20260505181734 | 82 | 225 | 2.6 | 10.4 | 0.00 | 0.00 | 0.00 | 39 | 1008.2 |
| 20260505181517 | 82 | 212 | 2.6 | 10.4 | 0.00 | 0.00 | 0.00 | 42 | 1008.2 |
| 20260505181413 | 82 | 111 | 2.6 | 10.4 | 0.00 | 0.00 | 0.00 | 41 | 1008.1 |
| 20260505181311 | 82 | 210 | 2.6 | 10.4 | 0.00 | 0.00 | 0.00 | 41 | 1008.1 |
| 20260505181223 | 82 | 205 | 2.6 | 10.4 | 0.00 | 0.00 | 0.00 | 41 | 1008.1 |
| 20260505181007 | 82 | 169 | 2.6 | 10.4 | 0.00 | 0.00 | 0.00 | 41 | 1008.1 |
| 20260505180908 | 82 | 98 | 2.6 | 10.4 | 0.00 | 0.00 | 0.00 | 41 | 1008.2 |
| 20260505180807 | 82 | 107 | 1.7 | 7.8 | 0.00 | 0.00 | 0.00 | 43 | 1008.2 |
| 20260505180709 | 82 | 117 | 2.6 | 7.8 | 0.00 | 0.00 | 0.00 | 42 | 1008.3 |
| 20260505180607 | 82 | 246 | 2.6 | 7.8 | 0.00 | 0.00 | 0.00 | 41 | 1008.2 |
| 20260505180507 | 82 | 214 | 2.6 | 14.8 | 0.00 | 0.00 | 0.00 | 40 | 1008.3 |
| 20260505180426 | 82 | 240 | 2.6 | 14.8 | 0.00 | 0.00 | 0.00 | 40 | 1008.1 |
| 20260505180207 | 83 | 240 | 2.6 | 14.8 | 0.00 | 0.00 | 0.00 | 39 | 1008.4 |
| 20260505180107 | 83 | 218 | 2.6 | 14.8 | 0.00 | 0.00 | 0.00 | 40 | 1008.3 |
| 20260505180007 | 83 | 167 | 1.7 | 14.8 | 0.00 | 0.00 | 0.00 | 40 | 1008.3 |
| 20260505175904 | 83 | 240 | 1.7 | 14.8 | 0.00 | 0.00 | 0.00 | 40 | 1008.2 |
| 20260505175805 | 83 | 190 | 1.7 | 14.8 | 0.00 | 0.00 | 0.00 | 40 | 1008.2 |
| 20260505175705 | 83 | 209 | 1.7 | 14.8 | 0.00 | 0.00 | 0.00 | 39 | 1008.4 |
| 20260505175604 | 83 | 219 | 1.7 | 14.8 | 0.00 | 0.00 | 0.00 | 39 | 1008.1 |
| 20260505175504 | 83 | 153 | 0.9 | 7.8 | 0.00 | 0.00 | 0.00 | 39 | 1008.1 |
| 20260505175406 | 83 | 190 | 1.7 | 7.8 | 0.00 | 0.00 | 0.00 | 42 | 1008.1 |
| 20260505175305 | 83 | 105 | 1.7 | 7.8 | 0.00 | 0.00 | 0.00 | 45 | 1008.3 |
| 20260505175204 | 82 | 109 | 0.9 | 7.8 | 0.00 | 0.00 | 0.00 | 45 | 1008.3 |
| 20260505175103 | 82 | 121 | 1.7 | 7.8 | 0.00 | 0.00 | 0.00 | 45 | 1008.3 |
| 20260505175002 | 82 | 121 | 1.7 | 7.8 | 0.00 | 0.00 | 0.00 | 45 | 1008.3 |
| 20260505174901 | 82 | 121 | 1.7 | 8.7 | 0.00 | 0.00 | 0.00 | 44 | 1008.3 |
| 20260505174802 | 82 | 116 | 2.6 | 8.7 | 0.00 | 0.00 | 0.00 | 47 | 1008.2 |
| 20260505174720 | 82 | 111 | 2.6 | 8.7 | 0.00 | 0.00 | 0.00 | 46 | 1008.3 |
| 20260505174504 | 82 | 182 | 2.6 | 8.7 | 0.00 | 0.00 | 0.00 | 45 | 1008.4 |
| 20260505174402 | 81 | 194 | 2.6 | 8.7 | 0.00 | 0.00 | 0.00 | 44 | 1008.4 |
| 20260505174302 | 81 | 157 | 2.6 | 8.7 | 0.00 | 0.00 | 0.00 | 43 | 1008.4 |
| 20260505174202 | 81 | 161 | 2.6 | 8.7 | 0.00 | 0.00 | 0.00 | 44 | 1008.5 |
| 20260505174101 | 81 | 148 | 2.6 | 8.7 | 0.00 | 0.00 | 0.00 | 43 | 1008.4 |
| 20260505174001 | 81 | 136 | 1.7 | 8.7 | 0.00 | 0.00 | 0.00 | 43 | 1008.6 |
| 20260505173902 | 81 | 130 | 1.7 | 6.1 | 0.00 | 0.00 | 0.00 | 43 | 1008.5 |
| 20260505173800 | 81 | 215 | 1.7 | 6.1 | 0.00 | 0.00 | 0.00 | 45 | 1008.6 |
| 20260505173700 | 81 | 233 | 1.7 | 6.1 | 0.00 | 0.00 | 0.00 | 43 | 1008.5 |
| 20260505173600 | 81 | 234 | 1.7 | 6.1 | 0.00 | 0.00 | 0.00 | 42 | 1008.6 |
| 20260505173459 | 81 | 225 | 1.7 | 5.2 | 0.00 | 0.00 | 0.00 | 43 | 1008.5 |
| 20260505173400 | 81 | 219 | 1.7 | 5.2 | 0.00 | 0.00 | 0.00 | 45 | 1008.6 |
| 20260505173259 | 81 | 190 | 1.7 | 5.2 | 0.00 | 0.00 | 0.00 | 45 | 1008.5 |
| 20260505173159 | 81 | 190 | 1.7 | 5.2 | 0.00 | 0.00 | 0.00 | 47 | 1008.4 |
| 20260505173058 | 81 | 222 | 1.7 | 5.2 | 0.00 | 0.00 | 0.00 | 46 | 1008.5 |
| 20260505172955 | 81 | 232 | 1.7 | 7.0 | 0.00 | 0.00 | 0.00 | 45 | 1008.6 |
| 20260505172854 | 81 | 236 | 1.7 | 7.0 | 0.00 | 0.00 | 0.00 | 45 | 1008.6 |
| 20260505172755 | 81 | 236 | 1.7 | 7.8 | 0.00 | 0.00 | 0.00 | 44 | 1008.6 |
| 20260505172653 | 81 | 236 | 1.7 | 7.8 | 0.00 | 0.00 | 0.00 | 46 | 1008.7 |
| 20260505172553 | 81 | 184 | 1.7 | 7.8 | 0.00 | 0.00 | 0.00 | 44 | 1008.7 |
| 20260505172455 | 81 | 178 | 1.7 | 7.8 | 0.00 | 0.00 | 0.00 | 45 | 1008.7 |
| 20260505172352 | 81 | 134 | 1.7 | 7.8 | 0.00 | 0.00 | 0.00 | 44 | 1008.8 |
| 20260505172253 | 81 | 109 | 1.7 | 7.8 | 0.00 | 0.00 | 0.00 | 45 | 1008.7 |
| 20260505172153 | 81 | 194 | 1.7 | 7.8 | 0.00 | 0.00 | 0.00 | 44 | 1008.7 |
| 20260505172123 | 81 | 134 | 1.7 | 7.8 | 0.00 | 0.00 | 0.00 | 44 | 1008.7 |
| 20260505171748 | 80 | 250 | 1.7 | 9.6 | 0.00 | 0.00 | 0.00 | 48 | 1008.8 |
| 20260505171649 | 80 | 149 | 1.7 | 9.6 | 0.00 | 0.00 | 0.00 | 48 | 1008.8 |
| 20260505171545 | 80 | 89 | 1.7 | 9.6 | 0.00 | 0.00 | 0.00 | 48 | 1008.7 |
| 20260505171445 | 80 | 219 | 1.7 | 9.6 | 0.00 | 0.00 | 0.00 | 47 | 1008.8 |
| 20260505171400 | 80 | 219 | 1.7 | 9.6 | 0.00 | 0.00 | 0.00 | 47 | 1008.8 |
| 20260505171142 | 80 | 105 | 1.7 | 9.6 | 0.00 | 0.00 | 0.00 | 48 | 1008.9 |
| 20260505171041 | 80 | 105 | 1.7 | 9.6 | 0.00 | 0.00 | 0.00 | 47 | 1008.9 |
| 20260505170941 | 80 | 243 | 2.6 | 9.6 | 0.00 | 0.00 | 0.00 | 46 | 1008.9 |
| 20260505170841 | 80 | 243 | 1.7 | 9.6 | 0.00 | 0.00 | 0.00 | 47 | 1008.8 |
| 20260505170739 | 80 | 238 | 1.7 | 8.7 | 0.00 | 0.00 | 0.00 | 48 | 1008.8 |
| 20260505170638 | 80 | 246 | 1.7 | 8.7 | 0.00 | 0.00 | 0.00 | 46 | 1008.9 |
| 20260505170539 | 80 | 147 | 1.7 | 8.7 | 0.00 | 0.00 | 0.00 | 46 | 1009.0 |
| 20260505170436 | 80 | 186 | 1.7 | 8.7 | 0.00 | 0.00 | 0.00 | 46 | 1009.0 |
| 20260505170335 | 80 | 188 | 1.7 | 8.7 | 0.00 | 0.00 | 0.00 | 46 | 1009.0 |
| 20260505170236 | 80 | 225 | 1.7 | 8.7 | 0.00 | 0.00 | 0.00 | 45 | 1008.9 |
| 20260505170136 | 80 | 225 | 1.7 | 8.7 | 0.00 | 0.00 | 0.00 | 46 | 1008.9 |
| 20260505170036 | 80 | 238 | 0.9 | 8.7 | 0.00 | 0.00 | 0.00 | 47 | 1008.9 |
| 20260505165936 | 80 | 185 | 0.9 | 6.1 | 0.00 | 0.00 | 0.00 | 47 | 1009.0 |
| 20260505165835 | 80 | 213 | 1.7 | 6.1 | 0.00 | 0.00 | 0.00 | 46 | 1009.0 |
| 20260505165736 | 80 | 213 | 1.7 | 6.1 | 0.00 | 0.00 | 0.00 | 46 | 1009.0 |
| 20260505165650 | 80 | 179 | 1.7 | 6.1 | 0.00 | 0.00 | 0.00 | 46 | 1009.0 |
| 20260505165435 | 80 | 228 | 1.7 | 6.1 | 0.00 | 0.00 | 0.00 | 47 | 1009.1 |
| 20260505165335 | 80 | 123 | 1.7 | 7.0 | 0.00 | 0.00 | 0.00 | 49 | 1009.1 |
| 20260505165236 | 80 | 186 | 1.7 | 7.0 | 0.00 | 0.00 | 0.00 | 48 | 1009.0 |
| 20260505165131 | 80 | 157 | 1.7 | 7.0 | 0.00 | 0.00 | 0.00 | 49 | 1009.0 |
| 20260505165031 | 80 | 126 | 1.7 | 7.0 | 0.00 | 0.00 | 0.00 | 49 | 1009.0 |
| 20260505164929 | 80 | 109 | 1.7 | 7.0 | 0.00 | 0.00 | 0.00 | 47 | 1009.1 |
| 20260505164902 | 80 | 192 | 1.7 | 7.0 | 0.00 | 0.00 | 0.00 | 50 | 1009.1 |
| 20260505164527 | 79 | 248 | 1.7 | 8.7 | 0.00 | 0.00 | 0.00 | 48 | 1009.1 |
| 20260505164427 | 79 | 252 | 1.7 | 8.7 | 0.00 | 0.00 | 0.00 | 49 | 1009.2 |
| 20260505164341 | 79 | 138 | 1.7 | 8.7 | 0.00 | 0.00 | 0.00 | 48 | 1009.1 |
| 20260505164123 | 79 | 225 | 1.7 | 8.7 | 0.00 | 0.00 | 0.00 | 51 | 1009.2 |
| 20260505164024 | 79 | 229 | 1.7 | 8.7 | 0.00 | 0.00 | 0.00 | 49 | 1009.2 |
| 20260505163921 | 79 | 229 | 1.7 | 8.7 | 0.00 | 0.00 | 0.00 | 48 | 1009.2 |
| 20260505163822 | 79 | 228 | 1.7 | 8.7 | 0.00 | 0.00 | 0.00 | 48 | 1009.2 |
| 20260505163722 | 79 | 244 | 0.9 | 6.1 | 0.00 | 0.00 | 0.00 | 50 | 1009.3 |
| 20260505163638 | 79 | 244 | 0.9 | 6.1 | 0.00 | 0.00 | 0.00 | 47 | 1009.2 |
| 20260505163424 | 79 | 240 | 0.9 | 4.3 | 0.00 | 0.00 | 0.00 | 49 | 1009.3 |
| 20260505163323 | 79 | 241 | 1.7 | 4.3 | 0.00 | 0.00 | 0.00 | 52 | 1009.3 |
| 20260505163220 | 78 | 241 | 1.7 | 4.3 | 0.00 | 0.00 | 0.00 | 49 | 1009.3 |
| 20260505163120 | 78 | 241 | 1.7 | 4.3 | 0.00 | 0.00 | 0.00 | 49 | 1009.3 |
| 20260505163021 | 78 | 241 | 1.7 | 4.3 | 0.00 | 0.00 | 0.00 | 49 | 1009.4 |
| 20260505162920 | 78 | 241 | 1.7 | 7.0 | 0.00 | 0.00 | 0.00 | 50 | 1009.4 |
| 20260505162820 | 78 | 169 | 1.7 | 7.0 | 0.00 | 0.00 | 0.00 | 50 | 1009.3 |